Today
| Time | Wind Dr | Wind Spd mph |
Wind Gust mph |
Hum In % |
Humid % |
TempI F |
Temp F |
Raw Bar in |
Tot Rain in |
UV | Solar W/sqm |
DailyRain in |
HourRain in |
24HrRain in |
RainRate in |
|---|---|---|---|---|---|---|---|---|---|---|---|---|---|---|---|
| 05/10/26 12:01:23 AM | 37 | 0.0 | 0.0 | 52 | 73 | 73.5 | 63.4 | 29.905 | 7.26 | 0.0 | 0 | 0.00 | 0.00 | 0.00 | 0.00 |
| 05/10/26 12:02:36 AM | 32 | 0.0 | 0.0 | 52 | 73 | 73.5 | 63.4 | 29.905 | 7.26 | 0.0 | 0 | 0.00 | 0.00 | 0.00 | 0.00 |
| 05/10/26 12:03:27 AM | 38 | 0.0 | 0.0 | 52 | 73 | 73.5 | 63.3 | 29.904 | 7.26 | 0.0 | 0 | 0.00 | 0.00 | 0.00 | 0.00 |
| 05/10/26 12:04:19 AM | 35 | 0.0 | 0.0 | 52 | 73 | 73.5 | 63.3 | 29.906 | 7.26 | 0.0 | 0 | 0.00 | 0.00 | 0.00 | 0.00 |
| 05/10/26 12:05:31 AM | 38 | 0.0 | 0.0 | 52 | 73 | 73.5 | 63.2 | 29.906 | 7.26 | 0.0 | 0 | 0.00 | 0.00 | 0.00 | 0.00 |
| 05/10/26 12:06:20 AM | 38 | 0.0 | 0.0 | 52 | 73 | 73.5 | 63.2 | 29.908 | 7.26 | 0.0 | 0 | 0.00 | 0.00 | 0.00 | 0.00 |
| 05/10/26 12:07:32 AM | 38 | 0.0 | 0.0 | 52 | 73 | 73.5 | 63.1 | 29.907 | 7.26 | 0.0 | 0 | 0.00 | 0.00 | 0.00 | 0.00 |
| 05/10/26 12:08:23 AM | 38 | 0.0 | 0.0 | 52 | 73 | 73.5 | 63.1 | 29.906 | 7.26 | 0.0 | 0 | 0.00 | 0.00 | 0.00 | 0.00 |
| 05/10/26 12:09:33 AM | 32 | 0.0 | 0.0 | 52 | 73 | 73.5 | 63.1 | 29.906 | 7.26 | 0.0 | 0 | 0.00 | 0.00 | 0.00 | 0.00 |
| 05/10/26 12:10:27 AM | 34 | 0.0 | 0.0 | 52 | 73 | 73.5 | 63.1 | 29.905 | 7.26 | 0.0 | 0 | 0.00 | 0.00 | 0.00 | 0.00 |
| 05/10/26 12:11:19 AM | 37 | 0.0 | 0.0 | 52 | 73 | 73.5 | 63.0 | 29.905 | 7.26 | 0.0 | 0 | 0.00 | 0.00 | 0.00 | 0.00 |
| 05/10/26 12:12:25 AM | 30 | 0.0 | 0.0 | 52 | 73 | 73.5 | 63.0 | 29.905 | 7.26 | 0.0 | 0 | 0.00 | 0.00 | 0.00 | 0.00 |
| 05/10/26 12:13:20 AM | 34 | 0.0 | 0.0 | 52 | 73 | 73.5 | 62.9 | 29.906 | 7.26 | 0.0 | 0 | 0.00 | 0.00 | 0.00 | 0.00 |
| 05/10/26 12:14:29 AM | 37 | 0.0 | 0.0 | 52 | 73 | 73.5 | 62.9 | 29.905 | 7.26 | 0.0 | 0 | 0.00 | 0.00 | 0.00 | 0.00 |
| 05/10/26 12:15:24 AM | 34 | 0.0 | 0.0 | 52 | 73 | 73.5 | 62.9 | 29.905 | 7.26 | 0.0 | 0 | 0.00 | 0.00 | 0.00 | 0.00 |
| 05/10/26 12:16:33 AM | 38 | 0.0 | 0.0 | 52 | 73 | 73.5 | 62.8 | 29.905 | 7.26 | 0.0 | 0 | 0.00 | 0.00 | 0.00 | 0.00 |
| 05/10/26 12:17:21 AM | 36 | 0.0 | 0.0 | 52 | 73 | 73.5 | 62.8 | 29.906 | 7.26 | 0.0 | 0 | 0.00 | 0.00 | 0.00 | 0.00 |
| 05/10/26 12:18:34 AM | 34 | 0.0 | 0.0 | 52 | 74 | 73.5 | 62.7 | 29.906 | 7.26 | 0.0 | 0 | 0.00 | 0.00 | 0.00 | 0.00 |
| 05/10/26 12:19:26 AM | 34 | 0.0 | 0.0 | 52 | 74 | 73.5 | 62.7 | 29.906 | 7.26 | 0.0 | 0 | 0.00 | 0.00 | 0.00 | 0.00 |
| 05/10/26 12:20:18 AM | 35 | 0.0 | 0.0 | 52 | 74 | 73.5 | 62.7 | 29.907 | 7.26 | 0.0 | 0 | 0.00 | 0.00 | 0.00 | 0.00 |
| 05/10/26 12:21:31 AM | 38 | 0.0 | 0.0 | 52 | 74 | 73.5 | 62.6 | 29.907 | 7.26 | 0.0 | 0 | 0.00 | 0.00 | 0.00 | 0.00 |
| 05/10/26 12:22:17 AM | 38 | 0.0 | 0.0 | 52 | 74 | 73.5 | 62.6 | 29.906 | 7.26 | 0.0 | 0 | 0.00 | 0.00 | 0.00 | 0.00 |
| 05/10/26 12:23:30 AM | 38 | 0.0 | 0.0 | 52 | 74 | 73.5 | 62.6 | 29.908 | 7.26 | 0.0 | 0 | 0.00 | 0.00 | 0.00 | 0.00 |
| 05/10/26 12:24:22 AM | 36 | 0.0 | 0.0 | 52 | 74 | 73.5 | 62.6 | 29.909 | 7.26 | 0.0 | 0 | 0.00 | 0.00 | 0.00 | 0.00 |
| 05/10/26 12:25:35 AM | 30 | 0.0 | 0.0 | 52 | 74 | 73.5 | 62.5 | 29.907 | 7.26 | 0.0 | 0 | 0.00 | 0.00 | 0.00 | 0.00 |
| 05/10/26 12:26:27 AM | 38 | 0.0 | 0.0 | 52 | 74 | 73.5 | 62.5 | 29.907 | 7.26 | 0.0 | 0 | 0.00 | 0.00 | 0.00 | 0.00 |
| 05/10/26 12:27:16 AM | 38 | 0.0 | 0.0 | 52 | 74 | 73.4 | 62.5 | 29.904 | 7.26 | 0.0 | 0 | 0.00 | 0.00 | 0.00 | 0.00 |
| 05/10/26 12:28:23 AM | 35 | 0.0 | 0.0 | 52 | 74 | 73.5 | 62.5 | 29.904 | 7.26 | 0.0 | 0 | 0.00 | 0.00 | 0.00 | 0.00 |
| 05/10/26 12:29:33 AM | 32 | 0.0 | 0.0 | 52 | 74 | 73.4 | 62.4 | 29.904 | 7.26 | 0.0 | 0 | 0.00 | 0.00 | 0.00 | 0.00 |
| 05/10/26 12:30:28 AM | 37 | 0.0 | 0.0 | 52 | 74 | 73.4 | 62.4 | 29.906 | 7.26 | 0.0 | 0 | 0.00 | 0.00 | 0.00 | 0.00 |
| 05/10/26 12:31:16 AM | 32 | 0.0 | 0.0 | 52 | 74 | 73.5 | 62.3 | 29.902 | 7.26 | 0.0 | 0 | 0.00 | 0.00 | 0.00 | 0.00 |
| 05/10/26 12:32:29 AM | 37 | 0.0 | 0.0 | 52 | 74 | 73.5 | 62.3 | 29.904 | 7.26 | 0.0 | 0 | 0.00 | 0.00 | 0.00 | 0.00 |
| 05/10/26 12:33:18 AM | 38 | 0.0 | 0.0 | 52 | 74 | 73.5 | 62.3 | 29.905 | 7.26 | 0.0 | 0 | 0.00 | 0.00 | 0.00 | 0.00 |
| 05/10/26 12:34:31 AM | 35 | 0.0 | 0.0 | 52 | 74 | 73.4 | 62.3 | 29.905 | 7.26 | 0.0 | 0 | 0.00 | 0.00 | 0.00 | 0.00 |
| 05/10/26 12:35:23 AM | 37 | 0.0 | 0.0 | 52 | 74 | 73.4 | 62.2 | 29.904 | 7.26 | 0.0 | 0 | 0.00 | 0.00 | 0.00 | 0.00 |
| 05/10/26 12:36:33 AM | 37 | 0.0 | 0.0 | 52 | 74 | 73.4 | 62.2 | 29.906 | 7.26 | 0.0 | 0 | 0.00 | 0.00 | 0.00 | 0.00 |
| 05/10/26 12:37:25 AM | 37 | 0.0 | 0.0 | 52 | 74 | 73.4 | 62.2 | 29.907 | 7.26 | 0.0 | 0 | 0.00 | 0.00 | 0.00 | 0.00 |
| 05/10/26 12:38:32 AM | 37 | 0.0 | 0.0 | 52 | 74 | 73.4 | 62.2 | 29.904 | 7.26 | 0.0 | 0 | 0.00 | 0.00 | 0.00 | 0.00 |
| 05/10/26 12:39:27 AM | 37 | 0.0 | 0.0 | 52 | 74 | 73.5 | 62.2 | 29.904 | 7.26 | 0.0 | 0 | 0.00 | 0.00 | 0.00 | 0.00 |
| 05/10/26 12:40:19 AM | 37 | 0.0 | 0.0 | 52 | 74 | 73.4 | 62.2 | 29.906 | 7.26 | 0.0 | 0 | 0.00 | 0.00 | 0.00 | 0.00 |
| 05/10/26 12:41:32 AM | 34 | 0.0 | 0.0 | 52 | 75 | 73.5 | 62.1 | 29.902 | 7.26 | 0.0 | 0 | 0.00 | 0.00 | 0.00 | 0.00 |
| 05/10/26 12:42:24 AM | 37 | 0.0 | 0.0 | 52 | 75 | 73.5 | 62.1 | 29.905 | 7.26 | 0.0 | 0 | 0.00 | 0.00 | 0.00 | 0.00 |
| 05/10/26 12:43:31 AM | 38 | 0.0 | 0.0 | 52 | 75 | 73.5 | 62.0 | 29.903 | 7.26 | 0.0 | 0 | 0.00 | 0.00 | 0.00 | 0.00 |
| 05/10/26 12:44:23 AM | 36 | 0.0 | 0.0 | 52 | 75 | 73.5 | 62.0 | 29.903 | 7.26 | 0.0 | 0 | 0.00 | 0.00 | 0.00 | 0.00 |
| 05/10/26 12:45:57 AM | 36 | 0.0 | 0.0 | 52 | 75 | 73.5 | 62.0 | 29.906 | 7.26 | 0.0 | 0 | 0.00 | 0.00 | 0.00 | 0.00 |
| 05/10/26 12:46:28 AM | 38 | 0.0 | 0.0 | 52 | 75 | 73.5 | 62.0 | 29.902 | 7.26 | 0.0 | 0 | 0.00 | 0.00 | 0.00 | 0.00 |
| 05/10/26 12:47:20 AM | 38 | 0.0 | 0.0 | 52 | 75 | 73.4 | 62.0 | 29.902 | 7.26 | 0.0 | 0 | 0.00 | 0.00 | 0.00 | 0.00 |
| 05/10/26 12:48:33 AM | 38 | 0.0 | 0.0 | 52 | 75 | 73.4 | 62.0 | 29.904 | 7.26 | 0.0 | 0 | 0.00 | 0.00 | 0.00 | 0.00 |
| 05/10/26 12:49:21 AM | 38 | 0.0 | 0.0 | 52 | 76 | 73.4 | 62.0 | 29.905 | 7.26 | 0.0 | 0 | 0.00 | 0.00 | 0.00 | 0.00 |
| 05/10/26 12:50:34 AM | 38 | 0.0 | 0.0 | 52 | 76 | 73.4 | 61.9 | 29.902 | 7.26 | 0.0 | 0 | 0.00 | 0.00 | 0.00 | 0.00 |
| 05/10/26 12:51:23 AM | 37 | 0.0 | 0.0 | 52 | 76 | 73.5 | 61.9 | 29.903 | 7.26 | 0.0 | 0 | 0.00 | 0.00 | 0.00 | 0.00 |
| 05/10/26 12:52:36 AM | 32 | 0.0 | 0.0 | 52 | 76 | 73.4 | 61.9 | 29.902 | 7.26 | 0.0 | 0 | 0.00 | 0.00 | 0.00 | 0.00 |
| 05/10/26 12:53:28 AM | 34 | 0.0 | 0.0 | 52 | 76 | 73.4 | 61.9 | 29.904 | 7.26 | 0.0 | 0 | 0.00 | 0.00 | 0.00 | 0.00 |
| 05/10/26 12:54:20 AM | 38 | 0.0 | 0.0 | 52 | 76 | 73.4 | 61.8 | 29.903 | 7.26 | 0.0 | 0 | 0.00 | 0.00 | 0.00 | 0.00 |
| 05/10/26 12:55:30 AM | 31 | 0.0 | 0.0 | 52 | 76 | 73.3 | 61.8 | 29.906 | 7.26 | 0.0 | 0 | 0.00 | 0.00 | 0.00 | 0.00 |
| 05/10/26 12:56:22 AM | 37 | 0.0 | 0.0 | 52 | 76 | 73.3 | 61.8 | 29.903 | 7.26 | 0.0 | 0 | 0.00 | 0.00 | 0.00 | 0.00 |
| 05/10/26 12:57:35 AM | 32 | 0.0 | 0.0 | 52 | 76 | 73.3 | 61.8 | 29.904 | 7.26 | 0.0 | 0 | 0.00 | 0.00 | 0.00 | 0.00 |
| 05/10/26 12:58:27 AM | 32 | 0.0 | 0.0 | 52 | 76 | 73.4 | 61.8 | 29.901 | 7.26 | 0.0 | 0 | 0.00 | 0.00 | 0.00 | 0.00 |
| 05/10/26 12:59:22 AM | 38 | 0.0 | 0.0 | 52 | 76 | 73.3 | 61.8 | 29.902 | 7.26 | 0.0 | 0 | 0.00 | 0.00 | 0.00 | 0.00 |
| 05/10/26 1:00:53 AM | 38 | 0.0 | 0.0 | 52 | 76 | 73.4 | 61.8 | 29.901 | 7.26 | 0.0 | 0 | 0.00 | 0.00 | 0.00 | 0.00 |
| 05/10/26 1:01:24 AM | 37 | 0.0 | 0.0 | 52 | 76 | 73.3 | 61.8 | 29.900 | 7.26 | 0.0 | 0 | 0.00 | 0.00 | 0.00 | 0.00 |
| 05/10/26 1:02:34 AM | 38 | 0.0 | 0.0 | 52 | 76 | 73.3 | 61.7 | 29.900 | 7.26 | 0.0 | 0 | 0.00 | 0.00 | 0.00 | 0.00 |
| 05/10/26 1:03:26 AM | 36 | 0.0 | 0.0 | 52 | 76 | 73.3 | 61.7 | 29.901 | 7.26 | 0.0 | 0 | 0.00 | 0.00 | 0.00 | 0.00 |
| 05/10/26 1:04:18 AM | 34 | 0.0 | 0.0 | 52 | 76 | 73.3 | 61.7 | 29.901 | 7.26 | 0.0 | 0 | 0.00 | 0.00 | 0.00 | 0.00 |
| 05/10/26 1:05:31 AM | 38 | 0.0 | 0.0 | 52 | 76 | 73.3 | 61.7 | 29.902 | 7.26 | 0.0 | 0 | 0.00 | 0.00 | 0.00 | 0.00 |
| 05/10/26 1:06:20 AM | 36 | 0.0 | 0.0 | 52 | 76 | 73.3 | 61.6 | 29.899 | 7.26 | 0.0 | 0 | 0.00 | 0.00 | 0.00 | 0.00 |
| 05/10/26 1:07:33 AM | 37 | 0.0 | 0.0 | 52 | 76 | 73.3 | 61.6 | 29.901 | 7.26 | 0.0 | 0 | 0.00 | 0.00 | 0.00 | 0.00 |
| 05/10/26 1:08:25 AM | 37 | 0.0 | 0.0 | 52 | 77 | 73.3 | 61.6 | 29.902 | 7.26 | 0.0 | 0 | 0.00 | 0.00 | 0.00 | 0.00 |
| 05/10/26 1:09:35 AM | 39 | 0.0 | 0.0 | 52 | 77 | 73.3 | 61.6 | 29.899 | 7.26 | 0.0 | 0 | 0.00 | 0.00 | 0.00 | 0.00 |
| 05/10/26 1:10:30 AM | 35 | 0.0 | 0.0 | 52 | 77 | 73.3 | 61.6 | 29.902 | 7.26 | 0.0 | 0 | 0.00 | 0.00 | 0.00 | 0.00 |
| 05/10/26 1:11:16 AM | 36 | 0.0 | 0.0 | 52 | 77 | 73.3 | 61.6 | 29.899 | 7.26 | 0.0 | 0 | 0.00 | 0.00 | 0.00 | 0.00 |
| 05/10/26 1:12:29 AM | 38 | 0.0 | 0.0 | 52 | 77 | 73.3 | 61.6 | 29.900 | 7.26 | 0.0 | 0 | 0.00 | 0.00 | 0.00 | 0.00 |
| 05/10/26 1:13:21 AM | 38 | 0.0 | 0.0 | 52 | 77 | 73.3 | 61.6 | 29.899 | 7.26 | 0.0 | 0 | 0.00 | 0.00 | 0.00 | 0.00 |
| 05/10/26 1:14:31 AM | 38 | 0.0 | 0.0 | 52 | 77 | 73.3 | 61.5 | 29.898 | 7.26 | 0.0 | 0 | 0.00 | 0.00 | 0.00 | 0.00 |
| 05/10/26 1:15:26 AM | 36 | 0.0 | 0.0 | 52 | 77 | 73.2 | 61.5 | 29.900 | 7.26 | 0.0 | 0 | 0.00 | 0.00 | 0.00 | 0.00 |
| 05/10/26 1:16:18 AM | 35 | 0.0 | 0.0 | 52 | 77 | 73.3 | 61.5 | 29.899 | 7.26 | 0.0 | 0 | 0.00 | 0.00 | 0.00 | 0.00 |
| 05/10/26 1:17:25 AM | 38 | 0.0 | 0.0 | 52 | 77 | 73.3 | 61.5 | 29.899 | 7.26 | 0.0 | 0 | 0.00 | 0.00 | 0.00 | 0.00 |
| 05/10/26 1:18:35 AM | 35 | 0.0 | 0.0 | 52 | 77 | 73.3 | 61.4 | 29.899 | 7.26 | 0.0 | 0 | 0.00 | 0.00 | 0.00 | 0.00 |
| 05/10/26 1:19:29 AM | 38 | 0.0 | 0.0 | 52 | 77 | 73.3 | 61.4 | 29.899 | 7.26 | 0.0 | 0 | 0.00 | 0.00 | 0.00 | 0.00 |
| 05/10/26 1:20:18 AM | 38 | 0.0 | 0.0 | 52 | 77 | 73.3 | 61.4 | 29.898 | 7.26 | 0.0 | 0 | 0.00 | 0.00 | 0.00 | 0.00 |
| 05/10/26 1:21:34 AM | 39 | 0.0 | 0.0 | 52 | 77 | 73.3 | 61.4 | 29.898 | 7.26 | 0.0 | 0 | 0.00 | 0.00 | 0.00 | 0.00 |
| 05/10/26 1:22:20 AM | 39 | 0.0 | 0.0 | 52 | 77 | 73.2 | 61.4 | 29.899 | 7.26 | 0.0 | 0 | 0.00 | 0.00 | 0.00 | 0.00 |
| 05/10/26 1:23:33 AM | 35 | 0.0 | 0.0 | 52 | 77 | 73.3 | 61.4 | 29.897 | 7.26 | 0.0 | 0 | 0.00 | 0.00 | 0.00 | 0.00 |
| 05/10/26 1:24:25 AM | 38 | 0.0 | 0.0 | 52 | 77 | 73.2 | 61.3 | 29.897 | 7.26 | 0.0 | 0 | 0.00 | 0.00 | 0.00 | 0.00 |
| 05/10/26 1:25:17 AM | 37 | 0.0 | 0.0 | 52 | 77 | 73.3 | 61.3 | 29.901 | 7.26 | 0.0 | 0 | 0.00 | 0.00 | 0.00 | 0.00 |
| 05/10/26 1:26:30 AM | 37 | 0.0 | 0.0 | 52 | 77 | 73.2 | 61.3 | 29.896 | 7.26 | 0.0 | 0 | 0.00 | 0.00 | 0.00 | 0.00 |
| 05/10/26 1:27:16 AM | 37 | 0.0 | 0.0 | 52 | 77 | 73.2 | 61.3 | 29.897 | 7.26 | 0.0 | 0 | 0.00 | 0.00 | 0.00 | 0.00 |
| 05/10/26 1:28:29 AM | 32 | 0.0 | 0.0 | 52 | 77 | 73.2 | 61.3 | 29.895 | 7.26 | 0.0 | 0 | 0.00 | 0.00 | 0.00 | 0.00 |
| 05/10/26 1:29:21 AM | 38 | 0.0 | 0.0 | 52 | 77 | 73.2 | 61.3 | 29.896 | 7.26 | 0.0 | 0 | 0.00 | 0.00 | 0.00 | 0.00 |
| 05/10/26 1:30:55 AM | 36 | 0.0 | 0.0 | 52 | 77 | 73.2 | 61.3 | 29.894 | 7.26 | 0.0 | 0 | 0.00 | 0.00 | 0.00 | 0.00 |
| 05/10/26 1:31:29 AM | 37 | 0.0 | 0.0 | 52 | 78 | 73.2 | 61.3 | 29.895 | 7.26 | 0.0 | 0 | 0.00 | 0.00 | 0.00 | 0.00 |
| 05/10/26 1:32:21 AM | 32 | 0.0 | 0.0 | 52 | 78 | 73.2 | 61.2 | 29.894 | 7.26 | 0.0 | 0 | 0.00 | 0.00 | 0.00 | 0.00 |
| 05/10/26 1:33:28 AM | 32 | 0.0 | 0.0 | 52 | 78 | 73.2 | 61.2 | 29.897 | 7.26 | 0.0 | 0 | 0.00 | 0.00 | 0.00 | 0.00 |
| 05/10/26 1:34:20 AM | 38 | 0.0 | 0.0 | 52 | 78 | 73.2 | 61.2 | 29.894 | 7.26 | 0.0 | 0 | 0.00 | 0.00 | 0.00 | 0.00 |
| 05/10/26 1:35:33 AM | 37 | 0.0 | 0.0 | 52 | 78 | 73.2 | 61.2 | 29.895 | 7.26 | 0.0 | 0 | 0.00 | 0.00 | 0.00 | 0.00 |
| 05/10/26 1:36:25 AM | 38 | 0.0 | 0.0 | 52 | 78 | 73.2 | 61.2 | 29.894 | 7.26 | 0.0 | 0 | 0.00 | 0.00 | 0.00 | 0.00 |
| 05/10/26 1:37:17 AM | 37 | 0.0 | 0.0 | 52 | 78 | 73.1 | 61.1 | 29.896 | 7.26 | 0.0 | 0 | 0.00 | 0.00 | 0.00 | 0.00 |
| 05/10/26 1:38:24 AM | 37 | 0.0 | 0.0 | 52 | 78 | 73.1 | 61.1 | 29.893 | 7.26 | 0.0 | 0 | 0.00 | 0.00 | 0.00 | 0.00 |
| 05/10/26 1:39:16 AM | 35 | 0.0 | 0.0 | 52 | 78 | 73.1 | 61.1 | 29.894 | 7.26 | 0.0 | 0 | 0.00 | 0.00 | 0.00 | 0.00 |
| 05/10/26 1:40:29 AM | 37 | 0.0 | 0.0 | 52 | 78 | 73.1 | 61.1 | 29.892 | 7.26 | 0.0 | 0 | 0.00 | 0.00 | 0.00 | 0.00 |
| 05/10/26 1:41:21 AM | 37 | 0.0 | 0.0 | 52 | 78 | 73.1 | 61.0 | 29.894 | 7.26 | 0.0 | 0 | 0.00 | 0.00 | 0.00 | 0.00 |
| 05/10/26 1:42:34 AM | 37 | 0.0 | 0.0 | 52 | 78 | 73.1 | 61.0 | 29.895 | 7.26 | 0.0 | 0 | 0.00 | 0.00 | 0.00 | 0.00 |
| 05/10/26 1:43:29 AM | 36 | 0.0 | 0.0 | 52 | 78 | 73.1 | 60.9 | 29.894 | 7.26 | 0.0 | 0 | 0.00 | 0.00 | 0.00 | 0.00 |
| 05/10/26 1:44:36 AM | 34 | 0.0 | 0.0 | 52 | 78 | 73.1 | 60.9 | 29.894 | 7.26 | 0.0 | 0 | 0.00 | 0.00 | 0.00 | 0.00 |
| 05/10/26 1:45:31 AM | 38 | 0.0 | 0.0 | 52 | 78 | 73.1 | 60.9 | 29.895 | 7.26 | 0.0 | 0 | 0.00 | 0.00 | 0.00 | 0.00 |
| 05/10/26 1:46:20 AM | 34 | 0.0 | 0.0 | 52 | 78 | 73.1 | 60.9 | 29.893 | 7.26 | 0.0 | 0 | 0.00 | 0.00 | 0.00 | 0.00 |
| 05/10/26 1:47:30 AM | 36 | 0.0 | 0.0 | 52 | 78 | 73.1 | 60.8 | 29.893 | 7.26 | 0.0 | 0 | 0.00 | 0.00 | 0.00 | 0.00 |
| 05/10/26 1:48:22 AM | 36 | 0.0 | 0.0 | 52 | 78 | 73.1 | 60.8 | 29.893 | 7.26 | 0.0 | 0 | 0.00 | 0.00 | 0.00 | 0.00 |
| 05/10/26 1:49:32 AM | 38 | 0.0 | 0.0 | 52 | 78 | 73.1 | 60.8 | 29.894 | 7.26 | 0.0 | 0 | 0.00 | 0.00 | 0.00 | 0.00 |
| 05/10/26 1:50:21 AM | 37 | 0.0 | 0.0 | 52 | 78 | 73.1 | 60.8 | 29.894 | 7.26 | 0.0 | 0 | 0.00 | 0.00 | 0.00 | 0.00 |
| 05/10/26 1:51:34 AM | 37 | 0.0 | 0.0 | 52 | 79 | 73.1 | 60.8 | 29.894 | 7.26 | 0.0 | 0 | 0.00 | 0.00 | 0.00 | 0.00 |
| 05/10/26 1:52:29 AM | 37 | 0.0 | 0.0 | 52 | 79 | 73.0 | 60.8 | 29.893 | 7.26 | 0.0 | 0 | 0.00 | 0.00 | 0.00 | 0.00 |
| 05/10/26 1:53:18 AM | 38 | 0.0 | 0.0 | 52 | 79 | 73.0 | 60.8 | 29.893 | 7.26 | 0.0 | 0 | 0.00 | 0.00 | 0.00 | 0.00 |
| 05/10/26 1:54:28 AM | 40 | 0.0 | 0.0 | 52 | 79 | 73.0 | 60.7 | 29.895 | 7.26 | 0.0 | 0 | 0.00 | 0.00 | 0.00 | 0.00 |
| 05/10/26 1:55:20 AM | 38 | 0.0 | 0.0 | 52 | 79 | 73.0 | 60.7 | 29.895 | 7.26 | 0.0 | 0 | 0.00 | 0.00 | 0.00 | 0.00 |
| 05/10/26 1:56:30 AM | 37 | 0.0 | 0.0 | 52 | 79 | 73.0 | 60.7 | 29.893 | 7.26 | 0.0 | 0 | 0.00 | 0.00 | 0.00 | 0.00 |
| 05/10/26 1:57:22 AM | 32 | 0.0 | 0.0 | 52 | 79 | 73.0 | 60.7 | 29.894 | 7.26 | 0.0 | 0 | 0.00 | 0.00 | 0.00 | 0.00 |
| 05/10/26 1:58:35 AM | 37 | 0.0 | 0.0 | 52 | 79 | 73.0 | 60.7 | 29.892 | 7.26 | 0.0 | 0 | 0.00 | 0.00 | 0.00 | 0.00 |
| 05/10/26 1:59:27 AM | 35 | 0.0 | 0.0 | 52 | 79 | 73.0 | 60.6 | 29.894 | 7.26 | 0.0 | 0 | 0.00 | 0.00 | 0.00 | 0.00 |
| 05/10/26 2:00:34 AM | 34 | 0.0 | 0.0 | 52 | 79 | 73.0 | 60.6 | 29.894 | 7.26 | 0.0 | 0 | 0.00 | 0.00 | 0.00 | 0.00 |
| 05/10/26 2:01:26 AM | 38 | 0.0 | 0.0 | 52 | 79 | 73.0 | 60.5 | 29.895 | 7.26 | 0.0 | 0 | 0.00 | 0.00 | 0.00 | 0.00 |
| 05/10/26 2:02:18 AM | 37 | 0.0 | 0.0 | 52 | 79 | 73.0 | 60.5 | 29.893 | 7.26 | 0.0 | 0 | 0.00 | 0.00 | 0.00 | 0.00 |
| 05/10/26 2:03:31 AM | 38 | 0.0 | 0.0 | 52 | 79 | 73.0 | 60.5 | 29.895 | 7.26 | 0.0 | 0 | 0.00 | 0.00 | 0.00 | 0.00 |
| 05/10/26 2:04:23 AM | 38 | 0.0 | 0.0 | 52 | 79 | 73.0 | 60.4 | 29.895 | 7.26 | 0.0 | 0 | 0.00 | 0.00 | 0.00 | 0.00 |
| 05/10/26 2:05:33 AM | 36 | 0.0 | 0.0 | 52 | 79 | 73.0 | 60.4 | 29.895 | 7.26 | 0.0 | 0 | 0.00 | 0.00 | 0.00 | 0.00 |
| 05/10/26 2:06:22 AM | 35 | 0.0 | 0.0 | 52 | 79 | 72.9 | 60.4 | 29.892 | 7.26 | 0.0 | 0 | 0.00 | 0.00 | 0.00 | 0.00 |
| 05/10/26 2:07:17 AM | 37 | 0.0 | 0.0 | 52 | 79 | 72.9 | 60.4 | 29.891 | 7.26 | 0.0 | 0 | 0.00 | 0.00 | 0.00 | 0.00 |
| 05/10/26 2:08:27 AM | 36 | 0.0 | 0.0 | 52 | 79 | 72.9 | 60.3 | 29.892 | 7.26 | 0.0 | 0 | 0.00 | 0.00 | 0.00 | 0.00 |
| 05/10/26 2:09:22 AM | 39 | 0.0 | 0.0 | 52 | 79 | 72.9 | 60.3 | 29.891 | 7.26 | 0.0 | 0 | 0.00 | 0.00 | 0.00 | 0.00 |
| 05/10/26 2:10:29 AM | 38 | 0.0 | 0.0 | 52 | 79 | 72.9 | 60.3 | 29.893 | 7.26 | 0.0 | 0 | 0.00 | 0.00 | 0.00 | 0.00 |
| 05/10/26 2:11:21 AM | 39 | 0.0 | 0.0 | 52 | 80 | 72.9 | 60.3 | 29.892 | 7.26 | 0.0 | 0 | 0.00 | 0.00 | 0.00 | 0.00 |
| 05/10/26 2:12:35 AM | 34 | 0.0 | 0.0 | 52 | 80 | 72.9 | 60.2 | 29.894 | 7.26 | 0.0 | 0 | 0.00 | 0.00 | 0.00 | 0.00 |
| 05/10/26 2:13:27 AM | 39 | 0.0 | 0.0 | 52 | 80 | 72.9 | 60.2 | 29.892 | 7.26 | 0.0 | 0 | 0.00 | 0.00 | 0.00 | 0.00 |
| 05/10/26 2:14:19 AM | 38 | 0.0 | 0.0 | 52 | 80 | 72.9 | 60.2 | 29.894 | 7.26 | 0.0 | 0 | 0.00 | 0.00 | 0.00 | 0.00 |
| 05/10/26 2:15:31 AM | 38 | 0.0 | 0.0 | 52 | 80 | 72.9 | 60.2 | 29.893 | 7.26 | 0.0 | 0 | 0.00 | 0.00 | 0.00 | 0.00 |
| 05/10/26 2:16:20 AM | 32 | 0.0 | 0.0 | 52 | 80 | 72.8 | 60.2 | 29.893 | 7.26 | 0.0 | 0 | 0.00 | 0.00 | 0.00 | 0.00 |
| 05/10/26 2:17:34 AM | 35 | 0.0 | 0.0 | 52 | 80 | 72.9 | 60.2 | 29.894 | 7.26 | 0.0 | 0 | 0.00 | 0.00 | 0.00 | 0.00 |
| 05/10/26 2:18:23 AM | 35 | 0.0 | 0.0 | 52 | 80 | 72.8 | 60.2 | 29.893 | 7.26 | 0.0 | 0 | 0.00 | 0.00 | 0.00 | 0.00 |
| 05/10/26 2:19:17 AM | 35 | 0.0 | 0.0 | 52 | 80 | 72.9 | 60.2 | 29.892 | 7.26 | 0.0 | 0 | 0.00 | 0.00 | 0.00 | 0.00 |
| 05/10/26 2:20:28 AM | 35 | 0.0 | 0.0 | 52 | 80 | 72.9 | 60.1 | 29.890 | 7.26 | 0.0 | 0 | 0.00 | 0.00 | 0.00 | 0.00 |
| 05/10/26 2:21:35 AM | 38 | 0.0 | 0.0 | 52 | 80 | 72.8 | 60.1 | 29.891 | 7.26 | 0.0 | 0 | 0.00 | 0.00 | 0.00 | 0.00 |
| 05/10/26 2:22:27 AM | 38 | 0.0 | 0.0 | 52 | 80 | 72.8 | 60.1 | 29.891 | 7.26 | 0.0 | 0 | 0.00 | 0.00 | 0.00 | 0.00 |
| 05/10/26 2:23:19 AM | 35 | 0.0 | 0.0 | 52 | 80 | 72.8 | 60.1 | 29.890 | 7.26 | 0.0 | 0 | 0.00 | 0.00 | 0.00 | 0.00 |
| 05/10/26 2:24:32 AM | 32 | 0.0 | 0.0 | 52 | 80 | 72.8 | 60.1 | 29.892 | 7.26 | 0.0 | 0 | 0.00 | 0.00 | 0.00 | 0.00 |
| 05/10/26 2:25:24 AM | 36 | 0.0 | 0.0 | 52 | 80 | 72.8 | 60.0 | 29.892 | 7.26 | 0.0 | 0 | 0.00 | 0.00 | 0.00 | 0.00 |
| 05/10/26 2:26:31 AM | 38 | 0.0 | 0.0 | 52 | 80 | 72.8 | 60.0 | 29.891 | 7.26 | 0.0 | 0 | 0.00 | 0.00 | 0.00 | 0.00 |
| 05/10/26 2:27:23 AM | 38 | 0.0 | 0.0 | 52 | 80 | 72.8 | 60.0 | 29.892 | 7.26 | 0.0 | 0 | 0.00 | 0.00 | 0.00 | 0.00 |
| 05/10/26 2:28:33 AM | 38 | 0.0 | 0.0 | 52 | 80 | 72.8 | 60.0 | 29.893 | 7.26 | 0.0 | 0 | 0.00 | 0.00 | 0.00 | 0.00 |
| 05/10/26 2:29:25 AM | 38 | 0.0 | 0.0 | 52 | 80 | 72.8 | 59.9 | 29.892 | 7.26 | 0.0 | 0 | 0.00 | 0.00 | 0.00 | 0.00 |
| 05/10/26 2:30:20 AM | 35 | 0.0 | 0.0 | 52 | 81 | 72.7 | 59.9 | 29.891 | 7.26 | 0.0 | 0 | 0.00 | 0.00 | 0.00 | 0.00 |
| 05/10/26 2:31:30 AM | 34 | 0.0 | 0.0 | 52 | 81 | 72.8 | 59.9 | 29.891 | 7.26 | 0.0 | 0 | 0.00 | 0.00 | 0.00 | 0.00 |
| 05/10/26 2:32:19 AM | 31 | 0.0 | 0.0 | 52 | 81 | 72.8 | 59.9 | 29.889 | 7.26 | 0.0 | 0 | 0.00 | 0.00 | 0.00 | 0.00 |
| 05/10/26 2:33:29 AM | 30 | 0.0 | 0.0 | 52 | 81 | 72.8 | 59.8 | 29.890 | 7.26 | 0.0 | 0 | 0.00 | 0.00 | 0.00 | 0.00 |
| 05/10/26 2:34:21 AM | 38 | 0.0 | 0.0 | 52 | 81 | 72.7 | 59.8 | 29.893 | 7.26 | 0.0 | 0 | 0.00 | 0.00 | 0.00 | 0.00 |
| 05/10/26 2:35:31 AM | 38 | 0.0 | 0.0 | 52 | 81 | 72.8 | 59.8 | 29.891 | 7.26 | 0.0 | 0 | 0.00 | 0.00 | 0.00 | 0.00 |
| 05/10/26 2:36:23 AM | 35 | 0.0 | 0.0 | 52 | 81 | 72.8 | 59.8 | 29.889 | 7.26 | 0.0 | 0 | 0.00 | 0.00 | 0.00 | 0.00 |
| 05/10/26 2:37:30 AM | 34 | 0.0 | 0.0 | 52 | 81 | 72.7 | 59.7 | 29.894 | 7.26 | 0.0 | 0 | 0.00 | 0.00 | 0.00 | 0.00 |
| 05/10/26 2:38:25 AM | 36 | 0.0 | 0.0 | 52 | 81 | 72.8 | 59.7 | 29.893 | 7.26 | 0.0 | 0 | 0.00 | 0.00 | 0.00 | 0.00 |
| 05/10/26 2:39:35 AM | 35 | 0.0 | 0.0 | 52 | 80 | 72.7 | 59.7 | 29.892 | 7.26 | 0.0 | 0 | 0.00 | 0.00 | 0.00 | 0.00 |
| 05/10/26 2:40:27 AM | 39 | 0.0 | 0.0 | 52 | 80 | 72.7 | 59.6 | 29.894 | 7.26 | 0.0 | 0 | 0.00 | 0.00 | 0.00 | 0.00 |
| 05/10/26 2:41:19 AM | 35 | 0.0 | 0.0 | 52 | 80 | 72.7 | 59.6 | 29.894 | 7.26 | 0.0 | 0 | 0.00 | 0.00 | 0.00 | 0.00 |
| 05/10/26 2:42:26 AM | 35 | 0.0 | 0.0 | 52 | 80 | 72.6 | 59.5 | 29.891 | 7.26 | 0.0 | 0 | 0.00 | 0.00 | 0.00 | 0.00 |
| 05/10/26 2:43:18 AM | 38 | 0.0 | 0.0 | 52 | 80 | 72.6 | 59.5 | 29.895 | 7.26 | 0.0 | 0 | 0.00 | 0.00 | 0.00 | 0.00 |
| 05/10/26 2:44:28 AM | 39 | 0.0 | 0.0 | 52 | 80 | 72.6 | 59.5 | 29.892 | 7.26 | 0.0 | 0 | 0.00 | 0.00 | 0.00 | 0.00 |
| 05/10/26 2:45:44 AM | 38 | 0.0 | 0.0 | 52 | 80 | 72.6 | 59.4 | 29.891 | 7.26 | 0.0 | 0 | 0.00 | 0.00 | 0.00 | 0.00 |
| 05/10/26 2:46:33 AM | 39 | 0.0 | 0.0 | 52 | 81 | 72.7 | 59.4 | 29.893 | 7.26 | 0.0 | 0 | 0.00 | 0.00 | 0.00 | 0.00 |
| 05/10/26 2:47:25 AM | 38 | 0.0 | 0.0 | 52 | 81 | 72.6 | 59.4 | 29.893 | 7.26 | 0.0 | 0 | 0.00 | 0.00 | 0.00 | 0.00 |
| 05/10/26 2:48:35 AM | 35 | 0.0 | 0.0 | 52 | 80 | 72.6 | 59.3 | 29.891 | 7.26 | 0.0 | 0 | 0.00 | 0.00 | 0.00 | 0.00 |
| 05/10/26 2:49:27 AM | 36 | 0.0 | 0.0 | 52 | 80 | 72.6 | 59.3 | 29.890 | 7.26 | 0.0 | 0 | 0.00 | 0.00 | 0.00 | 0.00 |
| 05/10/26 2:50:19 AM | 39 | 0.0 | 0.0 | 52 | 80 | 72.6 | 59.2 | 29.891 | 7.26 | 0.0 | 0 | 0.00 | 0.00 | 0.00 | 0.00 |
| 05/10/26 2:51:29 AM | 38 | 0.0 | 0.0 | 52 | 80 | 72.6 | 59.2 | 29.892 | 7.26 | 0.0 | 0 | 0.00 | 0.00 | 0.00 | 0.00 |
| 05/10/26 2:52:21 AM | 38 | 0.0 | 0.0 | 52 | 80 | 72.6 | 59.1 | 29.888 | 7.26 | 0.0 | 0 | 0.00 | 0.00 | 0.00 | 0.00 |
| 05/10/26 2:53:31 AM | 38 | 0.0 | 0.0 | 52 | 80 | 72.6 | 59.0 | 29.890 | 7.26 | 0.0 | 0 | 0.00 | 0.00 | 0.00 | 0.00 |
| 05/10/26 2:54:20 AM | 38 | 0.0 | 0.0 | 52 | 80 | 72.6 | 59.0 | 29.887 | 7.26 | 0.0 | 0 | 0.00 | 0.00 | 0.00 | 0.00 |
| 05/10/26 2:55:33 AM | 35 | 0.0 | 0.0 | 52 | 80 | 72.5 | 59.0 | 29.889 | 7.26 | 0.0 | 0 | 0.00 | 0.00 | 0.00 | 0.00 |
| 05/10/26 2:56:22 AM | 35 | 0.0 | 0.0 | 52 | 80 | 72.5 | 58.9 | 29.887 | 7.26 | 0.0 | 0 | 0.00 | 0.00 | 0.00 | 0.00 |
| 05/10/26 2:57:35 AM | 36 | 0.0 | 0.0 | 52 | 80 | 72.5 | 58.9 | 29.888 | 7.26 | 0.0 | 0 | 0.00 | 0.00 | 0.00 | 0.00 |
| 05/10/26 2:58:27 AM | 39 | 0.0 | 0.0 | 52 | 81 | 72.5 | 58.9 | 29.887 | 7.26 | 0.0 | 0 | 0.00 | 0.00 | 0.00 | 0.00 |
| 05/10/26 2:59:34 AM | 35 | 0.0 | 0.0 | 52 | 81 | 72.5 | 58.9 | 29.887 | 7.26 | 0.0 | 0 | 0.00 | 0.00 | 0.00 | 0.00 |
| 05/10/26 3:00:29 AM | 32 | 0.0 | 0.0 | 52 | 81 | 72.5 | 59.0 | 29.887 | 7.26 | 0.0 | 0 | 0.00 | 0.00 | 0.00 | 0.00 |
| 05/10/26 3:01:21 AM | 38 | 0.0 | 0.0 | 52 | 81 | 72.5 | 59.0 | 29.887 | 7.26 | 0.0 | 0 | 0.00 | 0.00 | 0.00 | 0.00 |
| 05/10/26 3:02:34 AM | 34 | 0.0 | 0.0 | 52 | 81 | 72.5 | 59.0 | 29.886 | 7.26 | 0.0 | 0 | 0.00 | 0.00 | 0.00 | 0.00 |
| 05/10/26 3:03:23 AM | 38 | 0.0 | 0.0 | 52 | 81 | 72.5 | 59.1 | 29.886 | 7.26 | 0.0 | 0 | 0.00 | 0.00 | 0.00 | 0.00 |
| 05/10/26 3:04:33 AM | 31 | 0.0 | 0.0 | 52 | 81 | 72.5 | 59.1 | 29.884 | 7.26 | 0.0 | 0 | 0.00 | 0.00 | 0.00 | 0.00 |
| 05/10/26 3:05:25 AM | 34 | 0.0 | 0.0 | 52 | 81 | 72.5 | 59.1 | 29.885 | 7.26 | 0.0 | 0 | 0.00 | 0.00 | 0.00 | 0.00 |
| 05/10/26 3:06:17 AM | 38 | 0.0 | 0.0 | 52 | 81 | 72.5 | 59.1 | 29.887 | 7.26 | 0.0 | 0 | 0.00 | 0.00 | 0.00 | 0.00 |
| 05/10/26 3:07:28 AM | 35 | 0.0 | 0.0 | 52 | 81 | 72.4 | 59.1 | 29.884 | 7.26 | 0.0 | 0 | 0.00 | 0.00 | 0.00 | 0.00 |
| 05/10/26 3:08:19 AM | 36 | 0.0 | 0.0 | 52 | 81 | 72.4 | 59.1 | 29.887 | 7.26 | 0.0 | 0 | 0.00 | 0.00 | 0.00 | 0.00 |
| 05/10/26 3:09:30 AM | 38 | 0.0 | 0.0 | 52 | 81 | 72.5 | 59.1 | 29.885 | 7.26 | 0.0 | 0 | 0.00 | 0.00 | 0.00 | 0.00 |
| 05/10/26 3:10:21 AM | 36 | 0.0 | 0.0 | 52 | 81 | 72.4 | 59.1 | 29.885 | 7.26 | 0.0 | 0 | 0.00 | 0.00 | 0.00 | 0.00 |
| 05/10/26 3:11:32 AM | 35 | 0.0 | 0.0 | 52 | 81 | 72.5 | 59.1 | 29.888 | 7.26 | 0.0 | 0 | 0.00 | 0.00 | 0.00 | 0.00 |
| 05/10/26 3:12:26 AM | 35 | 0.0 | 0.0 | 52 | 81 | 72.4 | 59.1 | 29.884 | 7.26 | 0.0 | 0 | 0.00 | 0.00 | 0.00 | 0.00 |
| 05/10/26 3:13:18 AM | 39 | 0.0 | 0.0 | 52 | 81 | 72.5 | 59.1 | 29.887 | 7.26 | 0.0 | 0 | 0.00 | 0.00 | 0.00 | 0.00 |
| 05/10/26 3:14:32 AM | 32 | 0.0 | 0.0 | 52 | 81 | 72.4 | 59.0 | 29.887 | 7.26 | 0.0 | 0 | 0.00 | 0.00 | 0.00 | 0.00 |
| 05/10/26 3:15:21 AM | 30 | 0.0 | 0.0 | 52 | 81 | 72.5 | 59.0 | 29.883 | 7.26 | 0.0 | 0 | 0.00 | 0.00 | 0.00 | 0.00 |
| 05/10/26 3:16:31 AM | 38 | 0.0 | 0.0 | 52 | 82 | 72.4 | 59.0 | 29.883 | 7.26 | 0.0 | 0 | 0.00 | 0.00 | 0.00 | 0.00 |
| 05/10/26 3:17:23 AM | 36 | 0.0 | 0.0 | 52 | 82 | 72.4 | 59.0 | 29.882 | 7.26 | 0.0 | 0 | 0.00 | 0.00 | 0.00 | 0.00 |
| 05/10/26 3:18:18 AM | 39 | 0.0 | 0.0 | 52 | 82 | 72.4 | 59.0 | 29.884 | 7.26 | 0.0 | 0 | 0.00 | 0.00 | 0.00 | 0.00 |
| 05/10/26 3:19:28 AM | 39 | 0.0 | 0.0 | 52 | 82 | 72.4 | 59.0 | 29.885 | 7.26 | 0.0 | 0 | 0.00 | 0.00 | 0.00 | 0.00 |
| 05/10/26 3:20:17 AM | 36 | 0.0 | 0.0 | 52 | 82 | 72.4 | 59.0 | 29.883 | 7.26 | 0.0 | 0 | 0.00 | 0.00 | 0.00 | 0.00 |
| 05/10/26 3:21:30 AM | 38 | 0.0 | 0.0 | 52 | 82 | 72.4 | 59.0 | 29.884 | 7.26 | 0.0 | 0 | 0.00 | 0.00 | 0.00 | 0.00 |
| 05/10/26 3:22:22 AM | 32 | 0.0 | 0.0 | 52 | 82 | 72.4 | 58.9 | 29.883 | 7.26 | 0.0 | 0 | 0.00 | 0.00 | 0.00 | 0.00 |
| 05/10/26 3:23:35 AM | 38 | 0.0 | 0.0 | 52 | 82 | 72.4 | 58.9 | 29.885 | 7.26 | 0.0 | 0 | 0.00 | 0.00 | 0.00 | 0.00 |
| 05/10/26 3:24:27 AM | 35 | 0.0 | 0.0 | 52 | 82 | 72.4 | 58.9 | 29.883 | 7.26 | 0.0 | 0 | 0.00 | 0.00 | 0.00 | 0.00 |
| 05/10/26 3:25:19 AM | 35 | 0.0 | 0.0 | 52 | 82 | 72.4 | 58.9 | 29.888 | 7.26 | 0.0 | 0 | 0.00 | 0.00 | 0.00 | 0.00 |
| 05/10/26 3:26:26 AM | 31 | 0.0 | 0.0 | 52 | 82 | 72.4 | 58.9 | 29.885 | 7.26 | 0.0 | 0 | 0.00 | 0.00 | 0.00 | 0.00 |
| 05/10/26 3:27:18 AM | 36 | 0.0 | 0.0 | 52 | 82 | 72.4 | 58.9 | 29.883 | 7.26 | 0.0 | 0 | 0.00 | 0.00 | 0.00 | 0.00 |
| 05/10/26 3:28:31 AM | 32 | 0.0 | 0.0 | 52 | 82 | 72.3 | 58.8 | 29.882 | 7.26 | 0.0 | 0 | 0.00 | 0.00 | 0.00 | 0.00 |
| 05/10/26 3:29:23 AM | 34 | 0.0 | 0.0 | 52 | 82 | 72.4 | 58.8 | 29.882 | 7.26 | 0.0 | 0 | 0.00 | 0.00 | 0.00 | 0.00 |
| 05/10/26 3:30:33 AM | 38 | 0.0 | 0.0 | 52 | 82 | 72.4 | 58.7 | 29.883 | 7.26 | 0.0 | 0 | 0.00 | 0.00 | 0.00 | 0.00 |
| 05/10/26 3:31:22 AM | 39 | 0.0 | 0.0 | 52 | 82 | 72.3 | 58.7 | 29.881 | 7.26 | 0.0 | 0 | 0.00 | 0.00 | 0.00 | 0.00 |
| 05/10/26 3:32:32 AM | 35 | 0.0 | 0.0 | 52 | 82 | 72.3 | 58.6 | 29.885 | 7.26 | 0.0 | 0 | 0.00 | 0.00 | 0.00 | 0.00 |
| 05/10/26 3:33:24 AM | 36 | 0.0 | 0.0 | 52 | 82 | 72.3 | 58.6 | 29.885 | 7.26 | 0.0 | 0 | 0.00 | 0.00 | 0.00 | 0.00 |
| 05/10/26 3:34:16 AM | 32 | 0.0 | 0.0 | 52 | 82 | 72.3 | 58.5 | 29.885 | 7.26 | 0.0 | 0 | 0.00 | 0.00 | 0.00 | 0.00 |
| 05/10/26 3:35:29 AM | 35 | 0.0 | 0.0 | 52 | 82 | 72.3 | 58.5 | 29.884 | 7.26 | 0.0 | 0 | 0.00 | 0.00 | 0.00 | 0.00 |
| 05/10/26 3:36:36 AM | 38 | 0.0 | 0.0 | 52 | 82 | 72.3 | 58.5 | 29.882 | 7.26 | 0.0 | 0 | 0.00 | 0.00 | 0.00 | 0.00 |
| 05/10/26 3:37:28 AM | 36 | 0.0 | 0.0 | 52 | 82 | 72.3 | 58.4 | 29.883 | 7.26 | 0.0 | 0 | 0.00 | 0.00 | 0.00 | 0.00 |
| 05/10/26 3:38:20 AM | 39 | 0.0 | 0.0 | 52 | 82 | 72.3 | 58.4 | 29.882 | 7.26 | 0.0 | 0 | 0.00 | 0.00 | 0.00 | 0.00 |
| 05/10/26 3:39:31 AM | 35 | 0.0 | 0.0 | 52 | 82 | 72.3 | 58.4 | 29.882 | 7.26 | 0.0 | 0 | 0.00 | 0.00 | 0.00 | 0.00 |
| 05/10/26 3:40:26 AM | 38 | 0.0 | 0.0 | 52 | 82 | 72.3 | 58.4 | 29.885 | 7.26 | 0.0 | 0 | 0.00 | 0.00 | 0.00 | 0.00 |
| 05/10/26 3:41:18 AM | 36 | 0.0 | 0.0 | 52 | 82 | 72.3 | 58.4 | 29.886 | 7.26 | 0.0 | 0 | 0.00 | 0.00 | 0.00 | 0.00 |
| 05/10/26 3:42:25 AM | 38 | 0.0 | 0.0 | 52 | 82 | 72.3 | 58.4 | 29.882 | 7.26 | 0.0 | 0 | 0.00 | 0.00 | 0.00 | 0.00 |
| 05/10/26 3:43:35 AM | 35 | 0.0 | 0.0 | 52 | 82 | 72.4 | 58.4 | 29.883 | 7.26 | 0.0 | 0 | 0.00 | 0.00 | 0.00 | 0.00 |
| 05/10/26 3:44:27 AM | 35 | 0.0 | 0.0 | 52 | 82 | 72.3 | 58.4 | 29.880 | 7.26 | 0.0 | 0 | 0.00 | 0.00 | 0.00 | 0.00 |
| 05/10/26 3:45:22 AM | 38 | 0.0 | 0.0 | 52 | 82 | 72.3 | 58.3 | 29.883 | 7.26 | 0.0 | 0 | 0.00 | 0.00 | 0.00 | 0.00 |
| 05/10/26 3:46:32 AM | 36 | 0.0 | 0.0 | 52 | 82 | 72.3 | 58.3 | 29.882 | 7.26 | 0.0 | 0 | 0.00 | 0.00 | 0.00 | 0.00 |
| 05/10/26 3:47:21 AM | 38 | 0.0 | 0.0 | 52 | 82 | 72.3 | 58.3 | 29.884 | 7.26 | 0.0 | 0 | 0.00 | 0.00 | 0.00 | 0.00 |
| 05/10/26 3:48:34 AM | 36 | 0.0 | 0.0 | 52 | 82 | 72.3 | 58.3 | 29.881 | 7.26 | 0.0 | 0 | 0.00 | 0.00 | 0.00 | 0.00 |
| 05/10/26 3:49:26 AM | 38 | 0.0 | 0.0 | 52 | 82 | 72.3 | 58.3 | 29.882 | 7.26 | 0.0 | 0 | 0.00 | 0.00 | 0.00 | 0.00 |
| 05/10/26 3:50:36 AM | 32 | 0.0 | 0.0 | 52 | 82 | 72.3 | 58.2 | 29.885 | 7.26 | 0.0 | 0 | 0.00 | 0.00 | 0.00 | 0.00 |
| 05/10/26 3:51:31 AM | 36 | 0.0 | 0.0 | 52 | 82 | 72.3 | 58.2 | 29.886 | 7.26 | 0.0 | 0 | 0.00 | 0.00 | 0.00 | 0.00 |
| 05/10/26 3:52:17 AM | 38 | 0.0 | 0.0 | 52 | 82 | 72.3 | 58.2 | 29.884 | 7.26 | 0.0 | 0 | 0.00 | 0.00 | 0.00 | 0.00 |
| 05/10/26 3:53:30 AM | 39 | 0.0 | 0.0 | 52 | 82 | 72.3 | 58.2 | 29.888 | 7.26 | 0.0 | 0 | 0.00 | 0.00 | 0.00 | 0.00 |
| 05/10/26 3:54:22 AM | 32 | 0.0 | 0.0 | 52 | 82 | 72.3 | 58.2 | 29.886 | 7.26 | 0.0 | 0 | 0.00 | 0.00 | 0.00 | 0.00 |
| 05/10/26 3:55:35 AM | 35 | 0.0 | 0.0 | 52 | 82 | 72.3 | 58.1 | 29.885 | 7.26 | 0.0 | 0 | 0.00 | 0.00 | 0.00 | 0.00 |
| 05/10/26 3:56:27 AM | 34 | 0.0 | 0.0 | 52 | 82 | 72.3 | 58.1 | 29.888 | 7.26 | 0.0 | 0 | 0.00 | 0.00 | 0.00 | 0.00 |
| 05/10/26 3:57:19 AM | 38 | 0.0 | 0.0 | 52 | 82 | 72.3 | 58.1 | 29.889 | 7.26 | 0.0 | 0 | 0.00 | 0.00 | 0.00 | 0.00 |
| 05/10/26 3:58:26 AM | 38 | 0.0 | 0.0 | 52 | 82 | 72.3 | 58.1 | 29.888 | 7.26 | 0.0 | 0 | 0.00 | 0.00 | 0.00 | 0.00 |
| 05/10/26 3:59:18 AM | 38 | 0.0 | 0.0 | 52 | 82 | 72.3 | 58.1 | 29.886 | 7.26 | 0.0 | 0 | 0.00 | 0.00 | 0.00 | 0.00 |
| 05/10/26 4:00:34 AM | 38 | 0.0 | 0.0 | 52 | 82 | 72.3 | 58.0 | 29.889 | 7.26 | 0.0 | 0 | 0.00 | 0.00 | 0.00 | 0.00 |
| 05/10/26 4:01:20 AM | 39 | 0.0 | 0.0 | 52 | 82 | 72.3 | 58.0 | 29.888 | 7.26 | 0.0 | 0 | 0.00 | 0.00 | 0.00 | 0.00 |
| 05/10/26 4:02:33 AM | 32 | 0.0 | 0.0 | 52 | 82 | 72.4 | 58.0 | 29.886 | 7.26 | 0.0 | 0 | 0.00 | 0.00 | 0.00 | 0.00 |
| 05/10/26 4:03:23 AM | 35 | 0.0 | 0.0 | 52 | 82 | 72.3 | 58.0 | 29.885 | 7.26 | 0.0 | 0 | 0.00 | 0.00 | 0.00 | 0.00 |
| 05/10/26 4:04:36 AM | 38 | 0.0 | 0.0 | 52 | 82 | 72.4 | 57.9 | 29.886 | 7.26 | 0.0 | 0 | 0.00 | 0.00 | 0.00 | 0.00 |
| 05/10/26 4:05:28 AM | 39 | 0.0 | 0.0 | 52 | 82 | 72.3 | 57.9 | 29.886 | 7.26 | 0.0 | 0 | 0.00 | 0.00 | 0.00 | 0.00 |
| 05/10/26 4:06:17 AM | 38 | 0.0 | 0.0 | 52 | 82 | 72.3 | 57.9 | 29.889 | 7.26 | 0.0 | 0 | 0.00 | 0.00 | 0.00 | 0.00 |
| 05/10/26 4:07:30 AM | 38 | 0.0 | 0.0 | 52 | 82 | 72.3 | 57.9 | 29.885 | 7.26 | 0.0 | 0 | 0.00 | 0.00 | 0.00 | 0.00 |
| 05/10/26 4:08:16 AM | 39 | 0.0 | 0.0 | 52 | 82 | 72.3 | 57.9 | 29.888 | 7.26 | 0.0 | 0 | 0.00 | 0.00 | 0.00 | 0.00 |
| 05/10/26 4:09:29 AM | 36 | 0.0 | 0.0 | 52 | 83 | 72.3 | 57.9 | 29.885 | 7.26 | 0.0 | 0 | 0.00 | 0.00 | 0.00 | 0.00 |
| 05/10/26 4:10:21 AM | 30 | 0.0 | 0.0 | 52 | 83 | 72.3 | 57.9 | 29.885 | 7.26 | 0.0 | 0 | 0.00 | 0.00 | 0.00 | 0.00 |
| 05/10/26 4:11:31 AM | 30 | 0.0 | 0.0 | 52 | 83 | 72.3 | 57.9 | 29.889 | 7.26 | 0.0 | 0 | 0.00 | 0.00 | 0.00 | 0.00 |
| 05/10/26 4:12:23 AM | 36 | 0.0 | 0.0 | 52 | 83 | 72.3 | 57.9 | 29.885 | 7.26 | 0.0 | 0 | 0.00 | 0.00 | 0.00 | 0.00 |
| 05/10/26 4:13:30 AM | 38 | 0.0 | 0.0 | 52 | 83 | 72.3 | 57.9 | 29.884 | 7.26 | 0.0 | 0 | 0.00 | 0.00 | 0.00 | 0.00 |
| 05/10/26 4:14:22 AM | 39 | 0.0 | 0.0 | 52 | 83 | 72.3 | 57.9 | 29.885 | 7.26 | 0.0 | 0 | 0.00 | 0.00 | 0.00 | 0.00 |
| 05/10/26 4:15:56 AM | 35 | 0.0 | 0.0 | 52 | 83 | 72.3 | 57.9 | 29.885 | 7.26 | 0.0 | 0 | 0.00 | 0.00 | 0.00 | 0.00 |
| 05/10/26 4:16:27 AM | 36 | 0.0 | 0.0 | 52 | 83 | 72.3 | 57.8 | 29.885 | 7.26 | 0.0 | 0 | 0.00 | 0.00 | 0.00 | 0.00 |
| 05/10/26 4:17:19 AM | 38 | 0.0 | 0.0 | 52 | 83 | 72.3 | 57.8 | 29.885 | 7.26 | 0.0 | 0 | 0.00 | 0.00 | 0.00 | 0.00 |
| 05/10/26 4:18:29 AM | 35 | 0.0 | 0.0 | 52 | 83 | 72.3 | 57.8 | 29.886 | 7.26 | 0.0 | 0 | 0.00 | 0.00 | 0.00 | 0.00 |
| 05/10/26 4:19:18 AM | 34 | 0.0 | 0.0 | 52 | 83 | 72.3 | 57.8 | 29.889 | 7.26 | 0.0 | 0 | 0.00 | 0.00 | 0.00 | 0.00 |
| 05/10/26 4:20:32 AM | 36 | 0.0 | 0.0 | 52 | 82 | 72.3 | 57.7 | 29.884 | 7.26 | 0.0 | 0 | 0.00 | 0.00 | 0.00 | 0.00 |
| 05/10/26 4:21:24 AM | 31 | 0.0 | 0.0 | 52 | 82 | 72.3 | 57.6 | 29.885 | 7.26 | 0.0 | 0 | 0.00 | 0.00 | 0.00 | 0.00 |
| 05/10/26 4:22:34 AM | 36 | 0.0 | 0.0 | 52 | 82 | 72.3 | 57.6 | 29.888 | 7.26 | 0.0 | 0 | 0.00 | 0.00 | 0.00 | 0.00 |
| 05/10/26 4:23:26 AM | 31 | 0.0 | 0.0 | 52 | 82 | 72.3 | 57.5 | 29.889 | 7.26 | 0.0 | 0 | 0.00 | 0.00 | 0.00 | 0.00 |
| 05/10/26 4:24:18 AM | 35 | 0.0 | 0.0 | 52 | 82 | 72.3 | 57.5 | 29.889 | 7.26 | 0.0 | 0 | 0.00 | 0.00 | 0.00 | 0.00 |
| 05/10/26 4:25:28 AM | 38 | 0.0 | 0.0 | 52 | 82 | 72.3 | 57.4 | 29.886 | 7.26 | 0.0 | 0 | 0.00 | 0.00 | 0.00 | 0.00 |
| 05/10/26 4:26:20 AM | 38 | 0.0 | 0.0 | 52 | 82 | 72.2 | 57.4 | 29.890 | 7.26 | 0.0 | 0 | 0.00 | 0.00 | 0.00 | 0.00 |
| 05/10/26 4:27:30 AM | 38 | 0.0 | 0.0 | 52 | 83 | 72.2 | 57.3 | 29.884 | 7.26 | 0.0 | 0 | 0.00 | 0.00 | 0.00 | 0.00 |
| 05/10/26 4:28:22 AM | 39 | 0.0 | 0.0 | 52 | 83 | 72.2 | 57.3 | 29.889 | 7.26 | 0.0 | 0 | 0.00 | 0.00 | 0.00 | 0.00 |
| 05/10/26 4:29:35 AM | 36 | 0.0 | 0.0 | 52 | 83 | 72.2 | 57.3 | 29.888 | 7.26 | 0.0 | 0 | 0.00 | 0.00 | 0.00 | 0.00 |
| 05/10/26 4:30:24 AM | 39 | 0.0 | 0.0 | 52 | 83 | 72.2 | 57.3 | 29.886 | 7.26 | 0.0 | 0 | 0.00 | 0.00 | 0.00 | 0.00 |
| 05/10/26 4:31:34 AM | 36 | 0.0 | 0.0 | 52 | 83 | 72.2 | 57.3 | 29.886 | 7.26 | 0.0 | 0 | 0.00 | 0.00 | 0.00 | 0.00 |
| 05/10/26 4:32:26 AM | 36 | 0.0 | 0.0 | 52 | 83 | 72.2 | 57.2 | 29.887 | 7.26 | 0.0 | 0 | 0.00 | 0.00 | 0.00 | 0.00 |
| 05/10/26 4:33:18 AM | 38 | 0.0 | 0.0 | 52 | 83 | 72.2 | 57.2 | 29.885 | 7.26 | 0.0 | 0 | 0.00 | 0.00 | 0.00 | 0.00 |
| 05/10/26 4:34:31 AM | 38 | 0.0 | 0.0 | 52 | 83 | 72.2 | 57.3 | 29.887 | 7.26 | 0.0 | 0 | 0.00 | 0.00 | 0.00 | 0.00 |
| 05/10/26 4:35:20 AM | 38 | 0.0 | 0.0 | 52 | 83 | 72.2 | 57.3 | 29.886 | 7.26 | 0.0 | 0 | 0.00 | 0.00 | 0.00 | 0.00 |
| 05/10/26 4:36:33 AM | 38 | 0.0 | 0.0 | 52 | 83 | 72.2 | 57.3 | 29.885 | 7.26 | 0.0 | 0 | 0.00 | 0.00 | 0.00 | 0.00 |
| 05/10/26 4:37:25 AM | 38 | 0.0 | 0.0 | 52 | 83 | 72.2 | 57.3 | 29.886 | 7.26 | 0.0 | 0 | 0.00 | 0.00 | 0.00 | 0.00 |
| 05/10/26 4:38:18 AM | 38 | 0.0 | 0.0 | 52 | 83 | 72.2 | 57.3 | 29.885 | 7.26 | 0.0 | 0 | 0.00 | 0.00 | 0.00 | 0.00 |
| 05/10/26 4:39:28 AM | 38 | 0.0 | 0.0 | 52 | 83 | 72.2 | 57.3 | 29.886 | 7.26 | 0.0 | 0 | 0.00 | 0.00 | 0.00 | 0.00 |
| 05/10/26 4:40:20 AM | 38 | 0.0 | 0.0 | 52 | 83 | 72.2 | 57.3 | 29.886 | 7.26 | 0.0 | 0 | 0.00 | 0.00 | 0.00 | 0.00 |
| 05/10/26 4:41:27 AM | 38 | 0.0 | 0.0 | 52 | 83 | 72.2 | 57.3 | 29.887 | 7.26 | 0.0 | 0 | 0.00 | 0.00 | 0.00 | 0.00 |
| 05/10/26 4:42:19 AM | 32 | 0.0 | 0.0 | 52 | 83 | 72.2 | 57.3 | 29.888 | 7.26 | 0.0 | 0 | 0.00 | 0.00 | 0.00 | 0.00 |
| 05/10/26 4:43:32 AM | 38 | 0.0 | 0.0 | 52 | 83 | 72.2 | 57.3 | 29.887 | 7.26 | 0.0 | 0 | 0.00 | 0.00 | 0.00 | 0.00 |
| 05/10/26 4:44:24 AM | 38 | 0.0 | 0.0 | 52 | 83 | 72.2 | 57.3 | 29.886 | 7.26 | 0.0 | 0 | 0.00 | 0.00 | 0.00 | 0.00 |
| 05/10/26 4:45:19 AM | 38 | 0.0 | 0.0 | 52 | 83 | 72.2 | 57.3 | 29.884 | 7.26 | 0.0 | 0 | 0.00 | 0.00 | 0.00 | 0.00 |
| 05/10/26 4:46:23 AM | 39 | 0.0 | 0.0 | 52 | 83 | 72.2 | 57.2 | 29.885 | 7.26 | 0.0 | 0 | 0.00 | 0.00 | 0.00 | 0.00 |
| 05/10/26 4:47:15 AM | 38 | 0.0 | 0.0 | 52 | 83 | 72.2 | 57.2 | 29.887 | 7.26 | 0.0 | 0 | 0.00 | 0.00 | 0.00 | 0.00 |
| 05/10/26 4:48:31 AM | 38 | 0.0 | 0.0 | 52 | 83 | 72.2 | 57.2 | 29.883 | 7.26 | 0.0 | 0 | 0.00 | 0.00 | 0.00 | 0.00 |
| 05/10/26 4:49:23 AM | 38 | 0.0 | 0.0 | 52 | 83 | 72.2 | 57.2 | 29.882 | 7.26 | 0.0 | 0 | 0.00 | 0.00 | 0.00 | 0.00 |
| 05/10/26 4:50:36 AM | 35 | 0.0 | 0.0 | 52 | 83 | 72.2 | 57.1 | 29.884 | 7.26 | 0.0 | 0 | 0.00 | 0.00 | 0.00 | 0.00 |
| 05/10/26 4:51:22 AM | 35 | 0.0 | 0.0 | 52 | 83 | 72.2 | 57.1 | 29.882 | 7.26 | 0.0 | 0 | 0.00 | 0.00 | 0.00 | 0.00 |
| 05/10/26 4:52:17 AM | 38 | 0.0 | 0.0 | 52 | 83 | 72.2 | 57.0 | 29.881 | 7.26 | 0.0 | 0 | 0.00 | 0.00 | 0.00 | 0.00 |
| 05/10/26 4:53:28 AM | 35 | 0.0 | 0.0 | 52 | 83 | 72.1 | 57.0 | 29.886 | 7.26 | 0.0 | 0 | 0.00 | 0.00 | 0.00 | 0.00 |
| 05/10/26 4:54:20 AM | 39 | 0.0 | 0.0 | 52 | 83 | 72.2 | 56.9 | 29.883 | 7.26 | 0.0 | 0 | 0.00 | 0.00 | 0.00 | 0.00 |
| 05/10/26 4:55:33 AM | 31 | 0.0 | 0.0 | 52 | 83 | 72.2 | 56.9 | 29.884 | 7.26 | 0.0 | 0 | 0.00 | 0.00 | 0.00 | 0.00 |
| 05/10/26 4:56:25 AM | 38 | 0.0 | 0.0 | 52 | 83 | 72.2 | 56.9 | 29.883 | 7.26 | 0.0 | 0 | 0.00 | 0.00 | 0.00 | 0.00 |
| 05/10/26 4:57:32 AM | 32 | 0.0 | 0.0 | 52 | 83 | 72.1 | 56.9 | 29.883 | 7.26 | 0.0 | 0 | 0.00 | 0.00 | 0.00 | 0.00 |
| 05/10/26 4:58:24 AM | 35 | 0.0 | 0.0 | 52 | 83 | 72.1 | 56.9 | 29.881 | 7.26 | 0.0 | 0 | 0.00 | 0.00 | 0.00 | 0.00 |
| 05/10/26 4:59:37 AM | 38 | 0.0 | 0.0 | 52 | 83 | 72.1 | 56.8 | 29.884 | 7.26 | 0.0 | 0 | 0.00 | 0.00 | 0.00 | 0.00 |
| 05/10/26 5:00:32 AM | 31 | 0.0 | 0.0 | 52 | 83 | 72.1 | 56.8 | 29.883 | 7.26 | 0.0 | 0 | 0.00 | 0.00 | 0.00 | 0.00 |
| 05/10/26 5:01:21 AM | 38 | 0.0 | 0.0 | 52 | 83 | 72.1 | 56.8 | 29.884 | 7.26 | 0.0 | 0 | 0.00 | 0.00 | 0.00 | 0.00 |
| 05/10/26 5:02:28 AM | 35 | 0.0 | 0.0 | 52 | 83 | 72.1 | 56.8 | 29.884 | 7.26 | 0.0 | 0 | 0.00 | 0.00 | 0.00 | 0.00 |
| 05/10/26 5:03:21 AM | 35 | 0.0 | 0.0 | 52 | 83 | 72.1 | 56.7 | 29.884 | 7.26 | 0.0 | 0 | 0.00 | 0.00 | 0.00 | 0.00 |
| 05/10/26 5:04:34 AM | 38 | 0.0 | 0.0 | 52 | 83 | 72.0 | 56.7 | 29.883 | 7.26 | 0.0 | 0 | 0.00 | 0.00 | 0.00 | 0.00 |
| 05/10/26 5:05:26 AM | 35 | 0.0 | 0.0 | 52 | 83 | 72.0 | 56.7 | 29.883 | 7.26 | 0.0 | 0 | 0.00 | 0.00 | 0.00 | 0.00 |
| 05/10/26 5:06:18 AM | 39 | 0.0 | 0.0 | 52 | 83 | 71.9 | 56.7 | 29.882 | 7.26 | 0.0 | 0 | 0.00 | 0.00 | 0.00 | 0.00 |
| 05/10/26 5:07:28 AM | 38 | 0.0 | 0.0 | 52 | 83 | 71.7 | 56.7 | 29.883 | 7.26 | 0.0 | 0 | 0.00 | 0.00 | 0.00 | 0.00 |
| 05/10/26 5:08:20 AM | 39 | 0.0 | 0.0 | 52 | 83 | 71.6 | 56.7 | 29.884 | 7.26 | 0.0 | 0 | 0.00 | 0.00 | 0.00 | 0.00 |
| 05/10/26 5:09:30 AM | 32 | 0.0 | 0.0 | 52 | 83 | 71.5 | 56.6 | 29.885 | 7.26 | 0.0 | 0 | 0.00 | 0.00 | 0.00 | 0.00 |
| 05/10/26 5:10:22 AM | 39 | 0.0 | 0.0 | 52 | 83 | 71.4 | 56.6 | 29.886 | 7.26 | 0.0 | 0 | 0.00 | 0.00 | 0.00 | 0.00 |
| 05/10/26 5:11:35 AM | 36 | 0.0 | 0.0 | 52 | 83 | 71.2 | 56.6 | 29.886 | 7.26 | 0.0 | 0 | 0.00 | 0.00 | 0.00 | 0.00 |
| 05/10/26 5:12:27 AM | 30 | 0.0 | 0.0 | 52 | 83 | 71.1 | 56.6 | 29.885 | 7.26 | 0.0 | 0 | 0.00 | 0.00 | 0.00 | 0.00 |
| 05/10/26 5:13:31 AM | 38 | 0.0 | 0.0 | 52 | 83 | 71.0 | 56.6 | 29.884 | 7.26 | 0.0 | 0 | 0.00 | 0.00 | 0.00 | 0.00 |
| 05/10/26 5:14:23 AM | 35 | 0.0 | 0.0 | 52 | 83 | 70.9 | 56.6 | 29.884 | 7.26 | 0.0 | 0 | 0.00 | 0.00 | 0.00 | 0.00 |
| 05/10/26 5:15:18 AM | 36 | 0.0 | 0.0 | 52 | 83 | 70.8 | 56.6 | 29.885 | 7.26 | 0.0 | 0 | 0.00 | 0.00 | 0.00 | 0.00 |
| 05/10/26 5:16:28 AM | 38 | 0.0 | 0.0 | 52 | 83 | 70.7 | 56.6 | 29.885 | 7.26 | 0.0 | 0 | 0.00 | 0.00 | 0.00 | 0.00 |
| 05/10/26 5:17:21 AM | 35 | 0.0 | 0.0 | 52 | 83 | 70.6 | 56.5 | 29.884 | 7.26 | 0.0 | 0 | 0.00 | 0.00 | 0.00 | 0.00 |
| 05/10/26 5:18:31 AM | 39 | 0.0 | 0.0 | 52 | 83 | 70.5 | 56.5 | 29.885 | 7.26 | 0.0 | 0 | 0.00 | 0.00 | 0.00 | 0.00 |
| 05/10/26 5:19:23 AM | 35 | 0.0 | 0.0 | 52 | 83 | 70.3 | 56.5 | 29.884 | 7.26 | 0.0 | 0 | 0.00 | 0.00 | 0.00 | 0.00 |
| 05/10/26 5:20:33 AM | 32 | 0.0 | 0.0 | 53 | 83 | 70.2 | 56.5 | 29.883 | 7.26 | 0.0 | 0 | 0.00 | 0.00 | 0.00 | 0.00 |
| 05/10/26 5:21:28 AM | 34 | 0.0 | 0.0 | 53 | 83 | 70.2 | 56.5 | 29.885 | 7.26 | 0.0 | 0 | 0.00 | 0.00 | 0.00 | 0.00 |
| 05/10/26 5:22:20 AM | 36 | 0.0 | 0.0 | 53 | 83 | 70.1 | 56.4 | 29.883 | 7.26 | 0.0 | 0 | 0.00 | 0.00 | 0.00 | 0.00 |
| 05/10/26 5:23:27 AM | 39 | 0.0 | 0.0 | 53 | 83 | 70.0 | 56.4 | 29.882 | 7.26 | 0.0 | 0 | 0.00 | 0.00 | 0.00 | 0.00 |
| 05/10/26 5:24:19 AM | 39 | 0.0 | 0.0 | 53 | 83 | 69.9 | 56.4 | 29.881 | 7.26 | 0.0 | 0 | 0.00 | 0.00 | 0.00 | 0.00 |
| 05/10/26 5:25:30 AM | 38 | 0.0 | 0.0 | 53 | 83 | 69.8 | 56.4 | 29.883 | 7.26 | 0.0 | 0 | 0.00 | 0.00 | 0.00 | 0.00 |
| 05/10/26 5:26:22 AM | 38 | 0.0 | 0.0 | 53 | 83 | 69.7 | 56.4 | 29.883 | 7.26 | 0.0 | 0 | 0.00 | 0.00 | 0.00 | 0.00 |
| 05/10/26 5:27:35 AM | 38 | 0.0 | 0.0 | 53 | 83 | 69.7 | 56.4 | 29.882 | 7.26 | 0.0 | 0 | 0.00 | 0.00 | 0.00 | 0.00 |
| 05/10/26 5:28:27 AM | 39 | 0.0 | 0.0 | 53 | 83 | 69.6 | 56.4 | 29.882 | 7.26 | 0.0 | 0 | 0.00 | 0.00 | 0.00 | 0.00 |
| 05/10/26 5:29:34 AM | 39 | 0.0 | 0.0 | 53 | 83 | 69.5 | 56.4 | 29.880 | 7.26 | 0.0 | 0 | 0.00 | 0.00 | 0.00 | 0.00 |
| 05/10/26 5:30:29 AM | 39 | 0.0 | 0.0 | 53 | 83 | 69.5 | 56.3 | 29.881 | 7.26 | 0.0 | 0 | 0.00 | 0.00 | 0.00 | 0.00 |
| 05/10/26 5:31:18 AM | 38 | 0.0 | 0.0 | 53 | 83 | 69.4 | 56.3 | 29.881 | 7.26 | 0.0 | 0 | 0.00 | 0.00 | 0.00 | 0.00 |
| 05/10/26 5:32:31 AM | 32 | 0.0 | 0.0 | 53 | 83 | 69.3 | 56.3 | 29.880 | 7.26 | 0.0 | 0 | 0.00 | 0.00 | 0.00 | 0.00 |
| 05/10/26 5:33:26 AM | 34 | 0.0 | 0.0 | 53 | 84 | 69.2 | 56.3 | 29.883 | 7.26 | 0.0 | 0 | 0.00 | 0.00 | 0.00 | 0.00 |
| 05/10/26 5:34:33 AM | 38 | 0.0 | 0.0 | 54 | 84 | 69.2 | 56.3 | 29.883 | 7.26 | 0.0 | 0 | 0.00 | 0.00 | 0.00 | 0.00 |
| 05/10/26 5:35:25 AM | 38 | 0.0 | 0.0 | 54 | 84 | 69.1 | 56.3 | 29.881 | 7.26 | 0.0 | 0 | 0.00 | 0.00 | 0.00 | 0.00 |
| 05/10/26 5:36:17 AM | 39 | 0.0 | 0.0 | 54 | 84 | 69.0 | 56.2 | 29.885 | 7.26 | 0.0 | 0 | 0.00 | 0.00 | 0.00 | 0.00 |
| 05/10/26 5:37:27 AM | 38 | 0.0 | 0.0 | 54 | 84 | 69.0 | 56.2 | 29.887 | 7.26 | 0.0 | 0 | 0.00 | 0.00 | 0.00 | 0.00 |
| 05/10/26 5:38:20 AM | 35 | 0.0 | 0.0 | 54 | 83 | 68.9 | 56.2 | 29.885 | 7.26 | 0.0 | 0 | 0.00 | 0.00 | 0.00 | 0.00 |
| 05/10/26 5:39:30 AM | 38 | 0.0 | 0.0 | 55 | 83 | 68.8 | 56.1 | 29.886 | 7.26 | 0.0 | 0 | 0.00 | 0.00 | 0.00 | 0.00 |
| 05/10/26 5:40:22 AM | 32 | 0.0 | 0.0 | 55 | 83 | 68.8 | 56.1 | 29.884 | 7.26 | 0.0 | 0 | 0.00 | 0.00 | 0.00 | 0.00 |
| 05/10/26 5:41:32 AM | 39 | 0.0 | 0.0 | 55 | 83 | 68.8 | 56.0 | 29.883 | 7.26 | 0.0 | 0 | 0.00 | 0.00 | 0.00 | 0.00 |
| 05/10/26 5:42:24 AM | 38 | 0.0 | 0.0 | 55 | 84 | 68.7 | 56.0 | 29.886 | 7.26 | 0.0 | 0 | 0.00 | 0.00 | 0.00 | 0.00 |
| 05/10/26 5:43:34 AM | 36 | 0.0 | 0.0 | 55 | 84 | 68.6 | 56.0 | 29.884 | 7.26 | 0.0 | 0 | 0.00 | 0.00 | 0.00 | 0.00 |
| 05/10/26 5:44:26 AM | 32 | 0.0 | 0.0 | 55 | 84 | 68.6 | 56.0 | 29.888 | 7.26 | 0.0 | 0 | 0.00 | 0.00 | 0.00 | 0.00 |
| 05/10/26 5:45:36 AM | 34 | 0.0 | 0.0 | 55 | 84 | 68.6 | 56.0 | 29.887 | 7.26 | 0.0 | 0 | 0.00 | 0.00 | 0.00 | 0.00 |
| 05/10/26 5:46:25 AM | 38 | 0.0 | 0.0 | 55 | 84 | 68.5 | 56.0 | 29.887 | 7.26 | 0.0 | 0 | 0.00 | 0.00 | 0.00 | 0.00 |
| 05/10/26 5:47:21 AM | 36 | 0.0 | 0.0 | 55 | 84 | 68.4 | 56.0 | 29.886 | 7.26 | 0.0 | 0 | 0.00 | 0.00 | 0.00 | 0.00 |
| 05/10/26 5:48:31 AM | 36 | 0.0 | 0.0 | 55 | 84 | 68.4 | 56.0 | 29.884 | 7.26 | 0.0 | 0 | 0.00 | 0.00 | 0.00 | 0.00 |
| 05/10/26 5:49:20 AM | 38 | 0.0 | 0.0 | 55 | 84 | 68.4 | 56.0 | 29.885 | 7.26 | 0.0 | 0 | 0.00 | 0.00 | 0.00 | 0.00 |
| 05/10/26 5:50:30 AM | 36 | 0.0 | 0.0 | 55 | 84 | 68.3 | 56.0 | 29.889 | 7.26 | 0.0 | 0 | 0.00 | 0.00 | 0.00 | 0.00 |
| 05/10/26 5:51:22 AM | 36 | 0.0 | 0.0 | 55 | 84 | 68.3 | 56.0 | 29.886 | 7.26 | 0.0 | 0 | 0.00 | 0.00 | 0.00 | 0.00 |
| 05/10/26 5:52:35 AM | 35 | 0.0 | 0.0 | 55 | 84 | 68.2 | 56.0 | 29.887 | 7.26 | 0.0 | 0 | 0.00 | 0.00 | 0.00 | 0.00 |
| 05/10/26 5:53:27 AM | 38 | 0.0 | 0.0 | 55 | 84 | 68.2 | 56.0 | 29.890 | 7.26 | 0.0 | 0 | 0.00 | 0.00 | 0.00 | 0.00 |
| 05/10/26 5:54:19 AM | 28 | 0.0 | 0.0 | 55 | 84 | 68.1 | 56.0 | 29.889 | 7.26 | 0.0 | 0 | 0.00 | 0.00 | 0.00 | 0.00 |
| 05/10/26 5:55:26 AM | 37 | 0.0 | 0.0 | 55 | 84 | 68.1 | 56.0 | 29.885 | 7.26 | 0.0 | 5 | 0.00 | 0.00 | 0.00 | 0.00 |
| 05/10/26 5:56:18 AM | 37 | 0.0 | 0.0 | 55 | 84 | 68.1 | 56.0 | 29.883 | 7.26 | 0.0 | 5 | 0.00 | 0.00 | 0.00 | 0.00 |
| 05/10/26 5:57:31 AM | 37 | 0.0 | 0.0 | 56 | 84 | 68.1 | 56.0 | 29.885 | 7.26 | 0.0 | 5 | 0.00 | 0.00 | 0.00 | 0.00 |
| 05/10/26 5:58:23 AM | 36 | 0.0 | 0.0 | 56 | 84 | 68.0 | 56.0 | 29.886 | 7.26 | 0.0 | 5 | 0.00 | 0.00 | 0.00 | 0.00 |
| 05/10/26 5:59:37 AM | 37 | 0.0 | 0.0 | 56 | 84 | 67.9 | 56.0 | 29.886 | 7.26 | 0.0 | 5 | 0.00 | 0.00 | 0.00 | 0.00 |
| 05/10/26 6:00:50 AM | 36 | 0.0 | 0.0 | 56 | 84 | 67.9 | 56.0 | 29.888 | 7.26 | 0.0 | 7 | 0.00 | 0.00 | 0.00 | 0.00 |
| 05/10/26 6:01:18 AM | 34 | 0.0 | 0.0 | 56 | 84 | 67.8 | 56.0 | 29.888 | 7.26 | 0.0 | 7 | 0.00 | 0.00 | 0.00 | 0.00 |
| 05/10/26 6:02:28 AM | 32 | 0.0 | 0.0 | 56 | 84 | 67.8 | 56.0 | 29.888 | 7.26 | 0.0 | 7 | 0.00 | 0.00 | 0.00 | 0.00 |
| 05/10/26 6:03:20 AM | 38 | 0.0 | 0.0 | 56 | 85 | 67.7 | 56.0 | 29.888 | 7.26 | 0.0 | 9 | 0.00 | 0.00 | 0.00 | 0.00 |
| 05/10/26 6:04:33 AM | 35 | 0.0 | 0.0 | 56 | 85 | 67.7 | 56.0 | 29.889 | 7.26 | 0.0 | 9 | 0.00 | 0.00 | 0.00 | 0.00 |
| 05/10/26 6:05:26 AM | 40 | 0.0 | 0.0 | 56 | 85 | 67.6 | 56.0 | 29.889 | 7.26 | 0.0 | 9 | 0.00 | 0.00 | 0.00 | 0.00 |
| 05/10/26 6:06:33 AM | 38 | 0.0 | 0.0 | 57 | 85 | 67.6 | 56.0 | 29.888 | 7.26 | 0.0 | 9 | 0.00 | 0.00 | 0.00 | 0.00 |
| 05/10/26 6:07:25 AM | 30 | 0.0 | 0.0 | 57 | 85 | 67.6 | 55.9 | 29.890 | 7.26 | 0.0 | 11 | 0.00 | 0.00 | 0.00 | 0.00 |
| 05/10/26 6:08:17 AM | 37 | 0.0 | 0.0 | 57 | 85 | 67.5 | 56.0 | 29.892 | 7.26 | 0.0 | 11 | 0.00 | 0.00 | 0.00 | 0.00 |
| 05/10/26 6:09:27 AM | 36 | 0.0 | 0.0 | 57 | 85 | 67.5 | 56.0 | 29.890 | 7.26 | 0.0 | 11 | 0.00 | 0.00 | 0.00 | 0.00 |
| 05/10/26 6:10:22 AM | 38 | 0.0 | 0.0 | 57 | 85 | 67.5 | 55.9 | 29.892 | 7.26 | 0.0 | 11 | 0.00 | 0.00 | 0.00 | 0.00 |
| 05/10/26 6:11:32 AM | 38 | 0.0 | 0.0 | 57 | 85 | 67.5 | 56.0 | 29.892 | 7.26 | 0.0 | 12 | 0.00 | 0.00 | 0.00 | 0.00 |
| 05/10/26 6:12:21 AM | 37 | 0.0 | 0.0 | 57 | 85 | 67.4 | 56.0 | 29.896 | 7.26 | 0.0 | 12 | 0.00 | 0.00 | 0.00 | 0.00 |
| 05/10/26 6:13:31 AM | 37 | 0.0 | 0.0 | 57 | 85 | 67.4 | 55.9 | 29.894 | 7.26 | 0.0 | 12 | 0.00 | 0.00 | 0.00 | 0.00 |
| 05/10/26 6:14:23 AM | 32 | 0.0 | 0.0 | 57 | 85 | 67.4 | 56.0 | 29.895 | 7.26 | 0.0 | 14 | 0.00 | 0.00 | 0.00 | 0.00 |
| 05/10/26 6:15:40 AM | 36 | 0.0 | 0.0 | 57 | 85 | 67.3 | 55.9 | 29.896 | 7.26 | 0.0 | 14 | 0.00 | 0.00 | 0.00 | 0.00 |
| 05/10/26 6:16:29 AM | 35 | 0.0 | 0.0 | 57 | 85 | 67.3 | 55.9 | 29.898 | 7.26 | 0.0 | 14 | 0.00 | 0.00 | 0.00 | 0.00 |
| 05/10/26 6:17:21 AM | 38 | 0.0 | 0.0 | 57 | 85 | 67.3 | 55.9 | 29.897 | 7.26 | 0.0 | 16 | 0.00 | 0.00 | 0.00 | 0.00 |
| 05/10/26 6:18:28 AM | 36 | 0.0 | 0.0 | 57 | 85 | 67.3 | 55.9 | 29.897 | 7.26 | 0.0 | 16 | 0.00 | 0.00 | 0.00 | 0.00 |
| 05/10/26 6:19:20 AM | 38 | 0.0 | 0.0 | 57 | 85 | 67.3 | 56.0 | 29.896 | 7.26 | 0.0 | 18 | 0.00 | 0.00 | 0.00 | 0.00 |
| 05/10/26 6:20:33 AM | 38 | 0.0 | 0.0 | 57 | 85 | 67.2 | 56.0 | 29.897 | 7.26 | 0.0 | 18 | 0.00 | 0.00 | 0.00 | 0.00 |
| 05/10/26 6:21:25 AM | 36 | 0.0 | 0.0 | 57 | 85 | 67.2 | 56.0 | 29.897 | 7.26 | 0.0 | 19 | 0.00 | 0.00 | 0.00 | 0.00 |
| 05/10/26 6:22:17 AM | 38 | 0.0 | 0.0 | 57 | 85 | 67.2 | 56.0 | 29.897 | 7.26 | 0.0 | 19 | 0.00 | 0.00 | 0.00 | 0.00 |
| 05/10/26 6:23:24 AM | 38 | 0.0 | 0.0 | 57 | 85 | 67.2 | 56.0 | 29.896 | 7.26 | 0.0 | 19 | 0.00 | 0.00 | 0.00 | 0.00 |
| 05/10/26 6:24:17 AM | 34 | 0.0 | 0.0 | 57 | 85 | 67.1 | 56.0 | 29.896 | 7.26 | 0.0 | 23 | 0.00 | 0.00 | 0.00 | 0.00 |
| 05/10/26 6:25:30 AM | 36 | 0.0 | 0.0 | 57 | 86 | 67.1 | 56.0 | 29.898 | 7.26 | 0.0 | 35 | 0.00 | 0.00 | 0.00 | 0.00 |
| 05/10/26 6:26:22 AM | 32 | 0.0 | 0.0 | 57 | 86 | 67.1 | 56.0 | 29.896 | 7.26 | 0.0 | 35 | 0.00 | 0.00 | 0.00 | 0.00 |
| 05/10/26 6:27:35 AM | 34 | 0.0 | 0.0 | 57 | 86 | 67.1 | 56.0 | 29.898 | 7.26 | 0.0 | 39 | 0.00 | 0.00 | 0.00 | 0.00 |
| 05/10/26 6:28:21 AM | 34 | 0.0 | 0.0 | 57 | 86 | 67.1 | 56.0 | 29.897 | 7.26 | 0.0 | 39 | 0.00 | 0.00 | 0.00 | 0.00 |
| 05/10/26 6:29:34 AM | 36 | 0.0 | 0.0 | 57 | 86 | 67.1 | 56.0 | 29.899 | 7.26 | 0.0 | 42 | 0.00 | 0.00 | 0.00 | 0.00 |
| 05/10/26 6:30:29 AM | 38 | 0.0 | 0.0 | 57 | 86 | 67.0 | 56.0 | 29.897 | 7.26 | 0.0 | 44 | 0.00 | 0.00 | 0.00 | 0.00 |
| 05/10/26 6:31:16 AM | 37 | 0.0 | 0.0 | 57 | 86 | 66.9 | 56.0 | 29.896 | 7.26 | 0.0 | 46 | 0.00 | 0.00 | 0.00 | 0.00 |
| 05/10/26 6:32:29 AM | 38 | 0.0 | 0.0 | 57 | 86 | 67.0 | 56.0 | 29.896 | 7.26 | 0.0 | 46 | 0.00 | 0.00 | 0.00 | 0.00 |
| 05/10/26 6:33:21 AM | 36 | 0.0 | 0.0 | 57 | 86 | 66.9 | 56.0 | 29.897 | 7.26 | 0.0 | 47 | 0.00 | 0.00 | 0.00 | 0.00 |
| 05/10/26 6:34:28 AM | 32 | 0.0 | 0.0 | 57 | 86 | 66.9 | 56.0 | 29.898 | 7.26 | 0.0 | 49 | 0.00 | 0.00 | 0.00 | 0.00 |
| 05/10/26 6:35:20 AM | 38 | 0.0 | 0.0 | 57 | 86 | 66.9 | 56.0 | 29.898 | 7.26 | 0.0 | 49 | 0.00 | 0.00 | 0.00 | 0.00 |
| 05/10/26 6:36:33 AM | 34 | 0.0 | 0.0 | 58 | 86 | 66.9 | 56.0 | 29.900 | 7.26 | 0.0 | 51 | 0.00 | 0.00 | 0.00 | 0.00 |
| 05/10/26 6:37:25 AM | 37 | 0.0 | 0.0 | 58 | 86 | 66.8 | 56.0 | 29.900 | 7.26 | 0.0 | 53 | 0.00 | 0.00 | 0.00 | 0.00 |
| 05/10/26 6:38:21 AM | 32 | 0.0 | 0.0 | 58 | 86 | 66.8 | 56.1 | 29.899 | 7.26 | 0.0 | 54 | 0.00 | 0.00 | 0.00 | 0.00 |
| 05/10/26 6:39:28 AM | 38 | 0.0 | 0.0 | 58 | 86 | 66.8 | 56.1 | 29.902 | 7.26 | 0.0 | 56 | 0.00 | 0.00 | 0.00 | 0.00 |
| 05/10/26 6:40:23 AM | 35 | 0.0 | 0.0 | 58 | 86 | 66.8 | 56.1 | 29.900 | 7.26 | 0.0 | 58 | 0.00 | 0.00 | 0.00 | 0.00 |
| 05/10/26 6:41:33 AM | 37 | 0.0 | 0.0 | 59 | 86 | 66.8 | 56.2 | 29.900 | 7.26 | 0.0 | 62 | 0.00 | 0.00 | 0.00 | 0.00 |
| 05/10/26 6:42:28 AM | 31 | 0.0 | 0.0 | 59 | 86 | 66.7 | 56.3 | 29.899 | 7.26 | 0.0 | 65 | 0.00 | 0.00 | 0.00 | 0.00 |
| 05/10/26 6:43:17 AM | 37 | 0.0 | 0.0 | 59 | 86 | 66.7 | 56.3 | 29.901 | 7.26 | 0.0 | 65 | 0.00 | 0.00 | 0.00 | 0.00 |
| 05/10/26 6:44:27 AM | 38 | 0.0 | 0.0 | 59 | 86 | 66.7 | 56.4 | 29.902 | 7.26 | 0.0 | 70 | 0.00 | 0.00 | 0.00 | 0.00 |
| 05/10/26 6:45:19 AM | 37 | 0.0 | 0.0 | 59 | 86 | 66.8 | 56.4 | 29.903 | 7.26 | 0.0 | 74 | 0.00 | 0.00 | 0.00 | 0.00 |
| 05/10/26 6:46:30 AM | 37 | 0.0 | 0.0 | 59 | 86 | 66.7 | 56.5 | 29.901 | 7.26 | 0.0 | 77 | 0.00 | 0.00 | 0.00 | 0.00 |
| 05/10/26 6:47:22 AM | 37 | 0.0 | 0.0 | 59 | 86 | 66.7 | 56.6 | 29.902 | 7.26 | 0.0 | 81 | 0.00 | 0.00 | 0.00 | 0.00 |
| 05/10/26 6:48:35 AM | 37 | 0.0 | 0.0 | 59 | 86 | 66.6 | 56.7 | 29.903 | 7.26 | 0.0 | 84 | 0.00 | 0.00 | 0.00 | 0.00 |
| 05/10/26 6:49:27 AM | 36 | 0.0 | 0.0 | 59 | 86 | 66.6 | 56.8 | 29.905 | 7.26 | 0.0 | 88 | 0.00 | 0.00 | 0.00 | 0.00 |
| 05/10/26 6:50:34 AM | 37 | 0.0 | 0.0 | 59 | 87 | 66.6 | 56.9 | 29.903 | 7.26 | 0.0 | 91 | 0.00 | 0.00 | 0.00 | 0.00 |
| 05/10/26 6:51:26 AM | 38 | 0.0 | 0.0 | 59 | 87 | 66.6 | 57.0 | 29.905 | 7.26 | 0.0 | 97 | 0.00 | 0.00 | 0.00 | 0.00 |
| 05/10/26 6:52:18 AM | 32 | 0.0 | 0.0 | 59 | 87 | 66.6 | 57.1 | 29.903 | 7.26 | 0.0 | 98 | 0.00 | 0.00 | 0.00 | 0.00 |
| 05/10/26 6:53:31 AM | 36 | 0.0 | 0.0 | 59 | 86 | 66.5 | 57.2 | 29.905 | 7.26 | 0.0 | 102 | 0.00 | 0.00 | 0.00 | 0.00 |
| 05/10/26 6:54:23 AM | 31 | 0.0 | 0.0 | 59 | 86 | 66.5 | 57.3 | 29.905 | 7.26 | 0.0 | 105 | 0.00 | 0.00 | 0.00 | 0.00 |
| 05/10/26 6:55:31 AM | 35 | 0.0 | 0.0 | 59 | 86 | 66.5 | 57.4 | 29.903 | 7.26 | 0.0 | 113 | 0.00 | 0.00 | 0.00 | 0.00 |
| 05/10/26 6:56:23 AM | 38 | 0.0 | 0.0 | 60 | 87 | 66.5 | 57.4 | 29.903 | 7.26 | 0.0 | 113 | 0.00 | 0.00 | 0.00 | 0.00 |
| 05/10/26 6:57:36 AM | 38 | 0.0 | 0.0 | 60 | 86 | 66.5 | 57.5 | 29.907 | 7.26 | 0.0 | 118 | 0.00 | 0.00 | 0.00 | 0.00 |
| 05/10/26 6:58:28 AM | 38 | 0.0 | 0.0 | 60 | 87 | 66.5 | 57.6 | 29.905 | 7.26 | 0.0 | 120 | 0.00 | 0.00 | 0.00 | 0.00 |
| 05/10/26 6:59:20 AM | 38 | 0.0 | 0.0 | 60 | 87 | 66.5 | 57.7 | 29.903 | 7.26 | 0.0 | 123 | 0.00 | 0.00 | 0.00 | 0.00 |
| 05/10/26 7:00:30 AM | 35 | 0.0 | 0.0 | 60 | 87 | 66.5 | 57.8 | 29.905 | 7.26 | 0.0 | 127 | 0.00 | 0.00 | 0.00 | 0.00 |
| 05/10/26 7:01:19 AM | 38 | 0.0 | 0.0 | 60 | 87 | 66.6 | 57.9 | 29.907 | 7.26 | 0.0 | 128 | 0.00 | 0.00 | 0.00 | 0.00 |
| 05/10/26 7:02:32 AM | 34 | 0.0 | 0.0 | 60 | 87 | 66.5 | 58.0 | 29.905 | 7.26 | 0.0 | 132 | 0.00 | 0.00 | 0.00 | 0.00 |
| 05/10/26 7:03:24 AM | 38 | 0.0 | 0.0 | 60 | 87 | 66.6 | 58.1 | 29.905 | 7.26 | 0.0 | 135 | 0.00 | 0.00 | 0.00 | 0.00 |
| 05/10/26 7:04:17 AM | 32 | 0.0 | 0.0 | 60 | 87 | 66.6 | 58.2 | 29.905 | 7.26 | 0.0 | 135 | 0.00 | 0.00 | 0.00 | 0.00 |
| 05/10/26 7:05:30 AM | 36 | 0.0 | 0.0 | 60 | 87 | 66.6 | 58.4 | 29.906 | 7.26 | 0.0 | 142 | 0.00 | 0.00 | 0.00 | 0.00 |
| 05/10/26 7:06:16 AM | 38 | 0.0 | 0.0 | 61 | 87 | 66.7 | 58.5 | 29.905 | 7.26 | 0.0 | 144 | 0.00 | 0.00 | 0.00 | 0.00 |
| 05/10/26 7:07:29 AM | 38 | 0.0 | 0.0 | 61 | 86 | 66.6 | 58.6 | 29.908 | 7.26 | 0.0 | 148 | 0.00 | 0.00 | 0.00 | 0.00 |
| 05/10/26 7:08:21 AM | 37 | 0.0 | 0.0 | 61 | 86 | 66.6 | 58.7 | 29.908 | 7.26 | 0.0 | 149 | 0.00 | 0.00 | 0.00 | 0.00 |
| 05/10/26 7:09:31 AM | 37 | 0.0 | 0.0 | 61 | 86 | 66.6 | 58.8 | 29.909 | 7.26 | 0.0 | 153 | 0.00 | 0.00 | 0.00 | 0.00 |
| 05/10/26 7:10:23 AM | 38 | 3.0 | 3.0 | 61 | 86 | 66.6 | 58.9 | 29.910 | 7.26 | 0.0 | 156 | 0.00 | 0.00 | 0.00 | 0.00 |
| 05/10/26 7:11:34 AM | 34 | 1.0 | 3.0 | 61 | 86 | 66.6 | 59.1 | 29.909 | 7.26 | 0.0 | 162 | 0.00 | 0.00 | 0.00 | 0.00 |
| 05/10/26 7:12:26 AM | 35 | 1.0 | 3.0 | 61 | 86 | 66.6 | 59.1 | 29.907 | 7.26 | 0.0 | 165 | 0.00 | 0.00 | 0.00 | 0.00 |
| 05/10/26 7:13:18 AM | 38 | 1.0 | 3.0 | 61 | 86 | 66.7 | 59.2 | 29.905 | 7.26 | 0.0 | 165 | 0.00 | 0.00 | 0.00 | 0.00 |
| 05/10/26 7:14:28 AM | 36 | 2.0 | 3.0 | 61 | 86 | 66.7 | 59.3 | 29.905 | 7.26 | 0.0 | 172 | 0.00 | 0.00 | 0.00 | 0.00 |
| 05/10/26 7:15:23 AM | 38 | 0.0 | 3.0 | 61 | 86 | 66.6 | 59.4 | 29.907 | 7.26 | 0.0 | 174 | 0.00 | 0.00 | 0.00 | 0.00 |
| 05/10/26 7:16:27 AM | 34 | 1.0 | 3.0 | 61 | 86 | 66.7 | 59.5 | 29.907 | 7.26 | 0.0 | 179 | 0.00 | 0.00 | 0.00 | 0.00 |
| 05/10/26 7:17:19 AM | 39 | 0.0 | 3.0 | 61 | 86 | 66.7 | 59.6 | 29.905 | 7.26 | 0.0 | 183 | 0.00 | 0.00 | 0.00 | 0.00 |
| 05/10/26 7:18:33 AM | 38 | 2.0 | 3.0 | 61 | 86 | 66.6 | 59.7 | 29.905 | 7.26 | 0.0 | 186 | 0.00 | 0.00 | 0.00 | 0.00 |
| 05/10/26 7:19:25 AM | 38 | 2.0 | 3.0 | 62 | 86 | 66.7 | 59.8 | 29.906 | 7.26 | 0.0 | 190 | 0.00 | 0.00 | 0.00 | 0.00 |
| 05/10/26 7:20:17 AM | 38 | 2.0 | 3.0 | 62 | 86 | 66.6 | 59.8 | 29.907 | 7.26 | 0.0 | 192 | 0.00 | 0.00 | 0.00 | 0.00 |
| 05/10/26 7:21:30 AM | 38 | 2.0 | 3.0 | 62 | 85 | 66.8 | 60.0 | 29.905 | 7.26 | 0.0 | 195 | 0.00 | 0.00 | 0.00 | 0.00 |
| 05/10/26 7:22:16 AM | 36 | 1.0 | 3.0 | 62 | 85 | 66.7 | 60.1 | 29.906 | 7.26 | 0.0 | 197 | 0.00 | 0.00 | 0.00 | 0.00 |
| 05/10/26 7:23:29 AM | 35 | 1.0 | 3.0 | 62 | 85 | 66.7 | 60.2 | 29.907 | 7.26 | 0.0 | 197 | 0.00 | 0.00 | 0.00 | 0.00 |
| 05/10/26 7:24:22 AM | 35 | 1.0 | 3.0 | 62 | 85 | 66.7 | 60.2 | 29.905 | 7.26 | 0.0 | 204 | 0.00 | 0.00 | 0.00 | 0.00 |
University Police wind advisory reference
For campus closure information please call the campus Emergency Hotline at (909) 537-5999
© All rights reserved. Unauthorized duplication or distribution is prohibited
Never base important decisions on this or any weather information obtained from the Internet
California State University, San Bernardino
5500 University Parkway, San Bernardino, CA. 92407
Phone: (909) 537-5108, Email: Weather Webmaster
Last Updated: